Time,TemperatureF,DewpointF,PressureIn,WindDirection,WindDirectionDegrees,WindSpeedMPH,WindSpeedGustMPH,Humidity,HourlyPrecipIn,Conditions,Clouds,dailyrainin,SolarRadiationWatts/m^2,SoftwareType,DateUTC
2013-03-06 00:00:00,62.7,59.1,30.10,East,93,0.0,1.0,88,0.00,,FEW,0.00,0.00,VWS V14.01,2013-03-06 05:00:00,
2013-03-06 00:05:00,62.7,59.1,30.09,East,93,0.0,0.0,88,0.00,,FEW,0.00,0.00,VWS V14.01,2013-03-06 05:05:00,
2013-03-06 00:10:00,62.6,59.0,30.09,East,93,0.0,0.0,88,0.00,,FEW,0.00,0.00,VWS V14.01,2013-03-06 05:10:00,
2013-03-06 00:15:00,62.6,59.0,30.09,East,93,1.0,2.0,88,0.00,,FEW,0.00,0.00,VWS V14.01,2013-03-06 05:15:00,
2013-03-06 00:20:00,62.5,58.9,30.08,SE,139,2.0,4.0,88,0.00,,FEW,0.00,0.00,VWS V14.01,2013-03-06 05:20:00,
2013-03-06 00:21:00,62.5,58.9,30.08,SE,139,1.0,4.0,88,0.00,,FEW,0.00,0.00,VWS V14.01,2013-03-06 05:21:00,
2013-03-06 00:25:00,62.6,58.7,30.08,SE,135,0.0,3.0,87,0.00,,FEW,0.00,0.00,VWS V14.01,2013-03-06 05:25:00,
2013-03-06 00:26:00,62.6,58.7,30.08,SE,131,2.0,3.0,87,0.00,,FEW,0.00,0.00,VWS V14.01,2013-03-06 05:26:00,
2013-03-06 00:30:00,62.8,58.9,30.08,ESE,117,1.0,3.0,87,0.00,,FEW,0.00,0.00,VWS V14.01,2013-03-06 05:30:00,
2013-03-06 00:31:00,62.8,58.9,30.08,SE,128,1.0,3.0,87,0.00,,FEW,0.00,0.00,VWS V14.01,2013-03-06 05:31:00,
2013-03-06 00:35:00,63.1,58.8,30.08,ESE,114,2.0,3.0,86,0.00,,FEW,0.00,0.00,VWS V14.01,2013-03-06 05:35:00,
2013-03-06 00:36:00,63.1,58.5,30.08,ESE,114,1.0,3.0,85,0.00,,FEW,0.00,0.00,VWS V14.01,2013-03-06 05:36:00,
2013-03-06 00:40:00,63.4,58.5,30.08,SE,130,2.0,3.0,84,0.00,,FEW,0.00,0.00,VWS V14.01,2013-03-06 05:40:00,
2013-03-06 00:41:00,63.4,58.5,30.08,SE,130,1.0,3.0,84,0.00,,FEW,0.00,0.00,VWS V14.01,2013-03-06 05:41:00,
2013-03-06 00:45:00,63.6,58.3,30.08,SE,130,0.0,1.0,83,0.00,,FEW,0.00,0.00,VWS V14.01,2013-03-06 05:45:00,
2013-03-06 00:46:00,63.6,58.3,30.08,SE,130,0.0,1.0,83,0.00,,FEW,0.00,0.00,VWS V14.01,2013-03-06 05:46:00,
2013-03-06 00:51:00,63.7,58.1,30.08,SE,130,0.0,1.0,82,0.00,,FEW,0.00,0.00,VWS V14.01,2013-03-06 05:51:00,
2013-03-06 00:56:00,63.9,58.0,30.08,SE,130,2.0,2.0,81,0.00,,FEW,0.00,0.00,VWS V14.01,2013-03-06 05:56:00,
2013-03-06 01:01:00,64.1,58.2,30.07,SSE,161,1.0,3.0,81,0.00,,FEW,0.00,0.00,VWS V14.01,2013-03-06 06:01:00,
2013-03-06 01:06:00,64.3,58.3,30.07,SE,137,1.0,3.0,81,0.00,,FEW,0.00,0.00,VWS V14.01,2013-03-06 06:06:00,
2013-03-06 01:07:00,64.3,58.3,30.07,SSE,167,1.0,3.0,81,0.00,,FEW,0.00,0.00,VWS V14.01,2013-03-06 06:07:00,
2013-03-06 01:11:00,64.5,58.5,30.07,SSE,167,1.0,3.0,81,0.00,,FEW,0.00,0.00,VWS V14.01,2013-03-06 06:11:00,
2013-03-06 01:12:00,64.5,58.5,30.07,SSE,167,1.0,2.0,81,0.00,,FEW,0.00,0.00,VWS V14.01,2013-03-06 06:12:00,
2013-03-06 01:16:00,64.8,58.8,30.07,SSE,153,0.0,2.0,81,0.00,,FEW,0.00,0.00,VWS V14.01,2013-03-06 06:16:00,
2013-03-06 01:17:00,64.8,58.8,30.07,South,178,1.0,3.0,81,0.00,,FEW,0.00,0.00,VWS V14.01,2013-03-06 06:17:00,
2013-03-06 01:21:00,65.0,59.0,30.07,South,178,0.0,3.0,81,0.00,,FEW,0.00,0.00,VWS V14.01,2013-03-06 06:21:00,
2013-03-06 01:22:00,65.0,59.0,30.07,South,171,0.0,3.0,81,0.00,,FEW,0.00,0.00,VWS V14.01,2013-03-06 06:22:00,
2013-03-06 01:26:00,65.3,59.3,30.07,SSE,166,0.0,2.0,81,0.00,,FEW,0.00,0.00,VWS V14.01,2013-03-06 06:26:00,
2013-03-06 01:27:00,65.3,59.3,30.07,SSE,166,0.0,2.0,81,0.00,,FEW,0.00,0.00,VWS V14.01,2013-03-06 06:27:00,
2013-03-06 01:31:00,65.4,59.4,30.07,SSE,166,0.0,2.0,81,0.00,,FEW,0.00,0.00,VWS V14.01,2013-03-06 06:31:00,
2013-03-06 01:32:00,65.4,59.4,30.07,SSE,166,0.0,0.0,81,0.00,,FEW,0.00,0.00,VWS V14.01,2013-03-06 06:32:00,
2013-03-06 01:36:00,65.4,59.1,30.07,South,182,3.0,3.0,80,0.00,,FEW,0.00,0.00,VWS V14.01,2013-03-06 06:36:00,
2013-03-06 01:37:00,65.4,59.1,30.07,South,182,0.0,3.0,80,0.00,,FEW,0.00,0.00,VWS V14.01,2013-03-06 06:37:00,
2013-03-06 01:41:00,65.4,59.4,30.07,SSW,198,1.0,3.0,81,0.00,,FEW,0.00,0.00,VWS V14.01,2013-03-06 06:41:00,
2013-03-06 01:42:00,65.4,59.4,30.07,SSW,198,1.0,1.0,81,0.00,,FEW,0.00,0.00,VWS V14.01,2013-03-06 06:42:00,
2013-03-06 01:46:00,65.4,59.1,30.06,SSW,198,1.0,2.0,80,0.00,,FEW,0.00,0.00,VWS V14.01,2013-03-06 06:46:00,
2013-03-06 01:47:00,65.4,59.1,30.06,SSW,198,0.0,2.0,80,0.00,,FEW,0.00,0.00,VWS V14.01,2013-03-06 06:47:00,
2013-03-06 01:51:00,65.4,59.1,30.06,SSW,198,0.0,2.0,80,0.00,,FEW,0.00,0.00,VWS V14.01,2013-03-06 06:51:00,
2013-03-06 01:52:00,65.4,59.1,30.06,SSW,198,0.0,0.0,80,0.00,,FEW,0.00,0.00,VWS V14.01,2013-03-06 06:52:00,
2013-03-06 01:53:00,65.4,59.1,30.06,SSW,197,0.0,0.0,80,0.00,,FEW,0.00,0.00,VWS V14.01,2013-03-06 06:53:00,
2013-03-06 01:57:00,65.3,59.0,30.06,SSW,197,0.0,1.0,80,0.00,,FEW,0.00,0.00,VWS V14.01,2013-03-06 06:57:00,
2013-03-06 01:58:00,65.3,59.0,30.06,South,179,1.0,2.0,80,0.00,,FEW,0.00,0.00,VWS V14.01,2013-03-06 06:58:00,
2013-03-06 02:02:00,65.2,58.9,30.05,SSW,198,0.0,0.0,80,0.00,,FEW,0.00,0.00,VWS V14.01,2013-03-06 07:02:00,
2013-03-06 02:03:00,65.2,58.9,30.05,SSW,198,1.0,2.0,80,0.00,,FEW,0.00,0.00,VWS V14.01,2013-03-06 07:03:00,
2013-03-06 02:07:00,65.2,58.9,30.05,SSW,198,0.0,2.0,80,0.00,,FEW,0.00,0.00,VWS V14.01,2013-03-06 07:07:00,
2013-03-06 02:08:00,65.1,58.8,30.05,SSW,198,0.0,2.0,80,0.00,,FEW,0.00,0.00,VWS V14.01,2013-03-06 07:08:00,
2013-03-06 02:12:00,65.0,58.3,30.05,SSW,198,0.0,0.0,79,0.00,,FEW,0.00,0.00,VWS V14.01,2013-03-06 07:12:00,
2013-03-06 02:13:00,64.9,58.2,30.05,SSW,198,0.0,0.0,79,0.00,,FEW,0.00,0.00,VWS V14.01,2013-03-06 07:13:00,
2013-03-06 02:17:00,64.8,58.1,30.05,SSW,198,0.0,0.0,79,0.00,,FEW,0.00,0.00,VWS V14.01,2013-03-06 07:17:00,
2013-03-06 02:18:00,64.8,58.1,30.05,SSW,198,1.0,1.0,79,0.00,,FEW,0.00,0.00,VWS V14.01,2013-03-06 07:18:00,
2013-03-06 02:22:00,64.5,57.8,30.05,SW,215,0.0,0.0,79,0.00,,FEW,0.00,0.00,VWS V14.01,2013-03-06 07:22:00,
2013-03-06 02:23:00,64.5,57.8,30.05,SW,215,0.0,1.0,79,0.00,,FEW,0.00,0.00,VWS V14.01,2013-03-06 07:23:00,
2013-03-06 02:24:00,64.5,57.8,30.05,SW,215,1.0,1.0,79,0.00,,FEW,0.00,0.00,VWS V14.01,2013-03-06 07:24:00,
2013-03-06 02:27:00,64.3,57.7,30.05,SW,215,0.0,1.0,79,0.00,,FEW,0.00,0.00,VWS V14.01,2013-03-06 07:27:00,
2013-03-06 02:28:00,64.3,57.7,30.05,SW,215,0.0,1.0,79,0.00,,FEW,0.00,0.00,VWS V14.01,2013-03-06 07:28:00,
2013-03-06 02:29:00,64.2,57.6,30.05,SW,216,1.0,1.0,79,0.00,,FEW,0.00,0.00,VWS V14.01,2013-03-06 07:29:00,
2013-03-06 02:32:00,64.1,57.5,30.05,SW,217,1.0,1.0,79,0.00,,FEW,0.00,0.00,VWS V14.01,2013-03-06 07:32:00,
2013-03-06 02:33:00,64.1,57.5,30.05,SW,225,1.0,1.0,79,0.00,,FEW,0.00,0.00,VWS V14.01,2013-03-06 07:33:00,
2013-03-06 02:34:00,64.0,57.4,30.05,SW,229,2.0,2.0,79,0.00,,FEW,0.00,0.00,VWS V14.01,2013-03-06 07:34:00,
2013-03-06 02:37:00,64.0,57.4,30.05,West,261,1.0,2.0,79,0.00,,FEW,0.00,0.00,VWS V14.01,2013-03-06 07:37:00,
2013-03-06 02:38:00,63.9,57.6,30.05,West,262,0.0,2.0,80,0.00,,FEW,0.00,0.00,VWS V14.01,2013-03-06 07:38:00,
2013-03-06 02:39:00,63.9,57.6,30.05,West,262,0.0,2.0,80,0.00,,FEW,0.00,0.00,VWS V14.01,2013-03-06 07:39:00,
2013-03-06 02:42:00,63.8,57.5,30.05,West,262,0.0,0.0,80,0.00,,FEW,0.00,0.00,VWS V14.01,2013-03-06 07:42:00,
2013-03-06 02:43:00,63.8,57.5,30.05,West,262,0.0,0.0,80,0.00,,FEW,0.00,0.00,VWS V14.01,2013-03-06 07:43:00,
2013-03-06 02:44:00,63.8,57.5,30.05,West,262,2.0,2.0,80,0.00,,FEW,0.00,0.00,VWS V14.01,2013-03-06 07:44:00,
2013-03-06 02:47:00,63.7,57.4,30.05,West,280,1.0,3.0,80,0.00,,FEW,0.00,0.00,VWS V14.01,2013-03-06 07:47:00,
2013-03-06 02:48:00,63.7,57.4,30.05,West,280,0.0,3.0,80,0.00,,FEW,0.00,0.00,VWS V14.01,2013-03-06 07:48:00,
2013-03-06 02:49:00,63.7,57.8,30.05,NW,306,1.0,3.0,81,0.00,,FEW,0.00,0.00,VWS V14.01,2013-03-06 07:49:00,
2013-03-06 02:52:00,63.8,57.9,30.05,NW,306,1.0,1.0,81,0.00,,FEW,0.00,0.00,VWS V14.01,2013-03-06 07:52:00,
2013-03-06 02:53:00,63.8,58.2,30.05,NW,308,1.0,2.0,82,0.00,,FEW,0.00,0.00,VWS V14.01,2013-03-06 07:53:00,
2013-03-06 02:54:00,63.8,58.2,30.05,NW,309,2.0,2.0,82,0.00,,FEW,0.00,0.00,VWS V14.01,2013-03-06 07:54:00,
2013-03-06 02:58:00,63.9,58.3,30.05,NW,316,2.0,2.0,82,0.00,,FEW,0.00,0.00,VWS V14.01,2013-03-06 07:58:00,
2013-03-06 02:59:00,64.0,58.7,30.05,NW,310,1.0,3.0,83,0.00,,FEW,0.00,0.00,VWS V14.01,2013-03-06 07:59:00,
2013-03-06 03:03:00,64.1,59.2,30.05,NW,315,2.0,3.0,84,0.00,,FEW,0.00,0.00,VWS V14.01,2013-03-06 08:03:00,
2013-03-06 03:04:00,64.1,59.2,30.05,NW,311,0.0,3.0,84,0.00,,FEW,0.00,0.00,VWS V14.01,2013-03-06 08:04:00,
2013-03-06 03:08:00,64.2,59.3,30.05,NW,317,1.0,3.0,84,0.00,,FEW,0.00,0.00,VWS V14.01,2013-03-06 08:08:00,
2013-03-06 03:10:00,64.2,59.6,30.05,NW,317,2.0,3.0,85,0.00,,FEW,0.00,0.00,VWS V14.01,2013-03-06 08:10:00,
2013-03-06 03:13:00,64.3,59.7,30.05,NW,312,2.0,3.0,85,0.00,,FEW,0.00,0.00,VWS V14.01,2013-03-06 08:13:00,
2013-03-06 03:15:00,64.3,59.7,30.05,NW,311,2.0,3.0,85,0.00,,FEW,0.00,0.00,VWS V14.01,2013-03-06 08:15:00,
2013-03-06 03:18:00,64.4,60.1,30.05,NNW,342,2.0,3.0,86,0.00,,FEW,0.00,0.00,VWS V14.01,2013-03-06 08:18:00,
2013-03-06 03:20:00,64.4,60.1,30.05,NW,325,2.0,3.0,86,0.00,,FEW,0.00,0.00,VWS V14.01,2013-03-06 08:20:00,
2013-03-06 03:23:00,64.4,60.1,30.05,NNW,346,3.0,3.0,86,0.00,,FEW,0.00,0.00,VWS V14.01,2013-03-06 08:23:00,
2013-03-06 03:25:00,64.5,60.2,30.05,NW,323,1.0,3.0,86,0.00,,FEW,0.00,0.00,VWS V14.01,2013-03-06 08:25:00,
2013-03-06 03:28:00,64.5,60.5,30.05,NNW,328,2.0,3.0,87,0.00,,FEW,0.00,0.00,VWS V14.01,2013-03-06 08:28:00,
2013-03-06 03:30:00,64.6,60.7,30.05,NW,321,2.0,3.0,87,0.00,,FEW,0.00,0.00,VWS V14.01,2013-03-06 08:30:00,
2013-03-06 03:33:00,64.6,60.7,30.05,NW,315,3.0,4.0,87,0.00,,FEW,0.00,0.00,VWS V14.01,2013-03-06 08:33:00,
2013-03-06 03:35:00,64.7,60.8,30.05,NNW,327,2.0,4.0,87,0.00,,FEW,0.00,0.00,VWS V14.01,2013-03-06 08:35:00,
2013-03-06 03:38:00,64.7,60.8,30.05,WNW,302,3.0,4.0,87,0.00,,FEW,0.00,0.00,VWS V14.01,2013-03-06 08:38:00,
2013-03-06 03:39:00,64.7,60.8,30.05,North,355,1.0,4.0,87,0.00,,FEW,0.00,0.00,VWS V14.01,2013-03-06 08:39:00,
2013-03-06 03:40:00,64.8,60.8,30.05,NW,311,2.0,4.0,87,0.00,,FEW,0.00,0.00,VWS V14.01,2013-03-06 08:40:00,
2013-03-06 03:43:00,64.8,60.8,30.05,NW,320,3.0,3.0,87,0.00,,FEW,0.00,0.00,VWS V14.01,2013-03-06 08:43:00,
2013-03-06 03:44:00,64.8,60.8,30.05,NW,320,1.0,3.0,87,0.00,,FEW,0.00,0.00,VWS V14.01,2013-03-06 08:44:00,
2013-03-06 03:45:00,64.8,60.8,30.05,NW,312,2.0,3.0,87,0.00,,FEW,0.00,0.00,VWS V14.01,2013-03-06 08:45:00,
2013-03-06 03:48:00,64.9,60.9,30.04,NW,312,2.0,3.0,87,0.00,,FEW,0.00,0.00,VWS V14.01,2013-03-06 08:48:00,
2013-03-06 03:49:00,64.9,60.9,30.04,NW,312,1.0,3.0,87,0.00,,FEW,0.00,0.00,VWS V14.01,2013-03-06 08:49:00,
2013-03-06 03:50:00,64.9,60.9,30.04,NW,304,2.0,4.0,87,0.00,,FEW,0.00,0.00,VWS V14.01,2013-03-06 08:50:00,
2013-03-06 03:53:00,64.9,60.9,30.04,NW,324,0.0,3.0,87,0.00,,FEW,0.00,0.00,VWS V14.01,2013-03-06 08:53:00,
2013-03-06 03:54:00,64.9,60.9,30.04,NW,324,1.0,3.0,87,0.00,,FEW,0.00,0.00,VWS V14.01,2013-03-06 08:54:00,
2013-03-06 03:55:00,64.9,60.9,30.04,NW,324,2.0,3.0,87,0.00,,FEW,0.00,0.00,VWS V14.01,2013-03-06 08:55:00,
2013-03-06 03:58:00,64.8,60.8,30.04,NW,321,0.0,3.0,87,0.00,,FEW,0.00,0.00,VWS V14.01,2013-03-06 08:58:00,
2013-03-06 03:59:00,64.8,60.8,30.04,NW,321,0.0,3.0,87,0.00,,FEW,0.00,0.00,VWS V14.01,2013-03-06 08:59:00,
2013-03-06 04:01:00,64.8,60.8,30.04,NW,321,1.0,3.0,87,0.00,,FEW,0.00,0.00,VWS V14.01,2013-03-06 09:01:00,
2013-03-06 04:04:00,64.8,60.8,30.04,NW,321,1.0,2.0,87,0.00,,FEW,0.00,0.00,VWS V14.01,2013-03-06 09:04:00,
2013-03-06 04:06:00,64.8,60.8,30.04,NW,321,0.0,2.0,87,0.00,,FEW,0.00,0.00,VWS V14.01,2013-03-06 09:06:00,
2013-03-06 04:09:00,64.8,60.8,30.04,NW,321,0.0,2.0,87,0.00,,FEW,0.00,0.00,VWS V14.01,2013-03-06 09:09:00,
2013-03-06 04:11:00,64.8,60.8,30.04,NW,321,0.0,2.0,87,0.00,,FEW,0.00,0.00,VWS V14.01,2013-03-06 09:11:00,
2013-03-06 04:14:00,64.8,60.8,30.04,NW,321,0.0,0.0,87,0.00,,FEW,0.00,0.00,VWS V14.01,2013-03-06 09:14:00,
2013-03-06 04:16:00,64.8,60.8,30.04,NW,321,0.0,0.0,87,0.00,,FEW,0.00,0.00,VWS V14.01,2013-03-06 09:16:00,
2013-03-06 04:19:00,64.8,60.8,30.04,NW,321,0.0,0.0,87,0.00,,FEW,0.00,0.00,VWS V14.01,2013-03-06 09:19:00,
2013-03-06 04:21:00,64.8,60.5,30.04,NW,321,0.0,0.0,86,0.00,,FEW,0.00,0.00,VWS V14.01,2013-03-06 09:21:00,
2013-03-06 04:24:00,64.7,60.4,30.04,NW,321,0.0,0.0,86,0.00,,FEW,0.00,0.00,VWS V14.01,2013-03-06 09:24:00,
2013-03-06 04:26:00,64.7,60.4,30.04,NW,321,0.0,0.0,86,0.00,,FEW,0.00,0.00,VWS V14.01,2013-03-06 09:26:00,
2013-03-06 04:29:00,64.6,60.3,30.04,NW,321,0.0,0.0,86,0.00,,FEW,0.00,0.00,VWS V14.01,2013-03-06 09:29:00,
2013-03-06 04:31:00,64.6,60.3,30.04,NW,321,0.0,0.0,86,0.00,,FEW,0.00,0.00,VWS V14.01,2013-03-06 09:31:00,
2013-03-06 04:34:00,64.5,60.2,30.04,NW,321,0.0,0.0,86,0.00,,FEW,0.00,0.00,VWS V14.01,2013-03-06 09:34:00,
2013-03-06 04:35:00,64.5,60.2,30.04,NW,321,0.0,0.0,86,0.00,,FEW,0.00,0.00,VWS V14.01,2013-03-06 09:35:00,
2013-03-06 04:36:00,64.5,60.2,30.04,NW,321,0.0,0.0,86,0.00,,FEW,0.00,0.00,VWS V14.01,2013-03-06 09:36:00,
2013-03-06 04:39:00,64.4,60.1,30.04,NW,321,0.0,0.0,86,0.00,,FEW,0.00,0.00,VWS V14.01,2013-03-06 09:39:00,
2013-03-06 04:40:00,64.4,60.1,30.04,NW,321,0.0,0.0,86,0.00,,FEW,0.00,0.00,VWS V14.01,2013-03-06 09:40:00,
2013-03-06 04:41:00,64.3,60.0,30.04,NW,321,0.0,0.0,86,0.00,,FEW,0.00,0.00,VWS V14.01,2013-03-06 09:41:00,
2013-03-06 04:44:00,64.2,59.9,30.04,NW,321,2.0,2.0,86,0.00,,FEW,0.00,0.00,VWS V14.01,2013-03-06 09:44:00,
2013-03-06 04:45:00,64.2,59.9,30.04,NW,321,2.0,2.0,86,0.00,,FEW,0.00,0.00,VWS V14.01,2013-03-06 09:45:00,
2013-03-06 04:46:00,64.1,59.8,30.03,NW,321,1.0,2.0,86,0.00,,FEW,0.00,0.00,VWS V14.01,2013-03-06 09:46:00,
2013-03-06 04:49:00,64.0,59.7,30.03,NW,321,1.0,3.0,86,0.00,,FEW,0.00,0.00,VWS V14.01,2013-03-06 09:49:00,
2013-03-06 04:50:00,64.0,59.7,30.03,NW,321,0.0,3.0,86,0.00,,FEW,0.00,0.00,VWS V14.01,2013-03-06 09:50:00,
2013-03-06 04:51:00,64.0,59.7,30.03,NW,321,1.0,3.0,86,0.00,,FEW,0.00,0.00,VWS V14.01,2013-03-06 09:51:00,
2013-03-06 04:54:00,63.9,60.0,30.03,NW,321,1.0,2.0,87,0.00,,FEW,0.00,0.00,VWS V14.01,2013-03-06 09:54:00,
2013-03-06 04:55:00,63.9,60.0,30.03,NW,321,1.0,2.0,87,0.00,,FEW,0.00,0.00,VWS V14.01,2013-03-06 09:55:00,
2013-03-06 04:57:00,63.9,60.0,30.03,NW,321,1.0,2.0,87,0.00,,FEW,0.00,0.00,VWS V14.01,2013-03-06 09:57:00,
2013-03-06 04:59:00,63.8,59.9,30.03,NW,321,2.0,2.0,87,0.00,,FEW,0.00,0.00,VWS V14.01,2013-03-06 09:59:00,
2013-03-06 05:00:00,63.8,59.9,30.03,NW,321,1.0,2.0,87,0.00,,FEW,0.00,0.00,VWS V14.01,2013-03-06 10:00:00,
2013-03-06 05:02:00,63.8,59.9,30.04,NW,321,1.0,1.0,87,0.00,,FEW,0.00,0.00,VWS V14.01,2013-03-06 10:02:00,
2013-03-06 05:04:00,63.8,59.9,30.04,NW,321,0.0,1.0,87,0.00,,FEW,0.00,0.00,VWS V14.01,2013-03-06 10:04:00,
2013-03-06 05:05:00,63.8,59.9,30.04,NW,321,0.0,1.0,87,0.00,,FEW,0.00,0.00,VWS V14.01,2013-03-06 10:05:00,
2013-03-06 05:07:00,63.8,59.9,30.04,NW,321,0.0,1.0,87,0.00,,FEW,0.00,0.00,VWS V14.01,2013-03-06 10:07:00,
2013-03-06 05:09:00,63.7,59.8,30.04,NW,321,0.0,1.0,87,0.00,,FEW,0.00,0.00,VWS V14.01,2013-03-06 10:09:00,
2013-03-06 05:10:00,63.7,59.8,30.04,NW,321,1.0,1.0,87,0.00,,FEW,0.00,0.00,VWS V14.01,2013-03-06 10:10:00,
2013-03-06 05:12:00,63.7,59.8,30.04,NW,321,0.0,0.0,87,0.00,,FEW,0.00,0.00,VWS V14.01,2013-03-06 10:12:00,
2013-03-06 05:14:00,63.7,59.8,30.04,NW,321,1.0,1.0,87,0.00,,FEW,0.00,0.00,VWS V14.01,2013-03-06 10:14:00,
2013-03-06 05:15:00,63.7,59.8,30.04,NW,321,1.0,1.0,87,0.00,,FEW,0.00,0.00,VWS V14.01,2013-03-06 10:15:00,
2013-03-06 05:17:00,63.6,59.7,30.04,NW,321,0.0,1.0,87,0.00,,FEW,0.00,0.00,VWS V14.01,2013-03-06 10:17:00,
2013-03-06 05:19:00,63.6,59.7,30.04,NW,321,0.0,1.0,87,0.00,,FEW,0.00,0.00,VWS V14.01,2013-03-06 10:19:00,
2013-03-06 05:20:00,63.6,59.7,30.04,NW,321,1.0,1.0,87,0.00,,FEW,0.00,0.00,VWS V14.01,2013-03-06 10:20:00,
2013-03-06 05:22:00,63.5,59.6,30.04,NW,321,0.0,0.0,87,0.00,,FEW,0.00,0.00,VWS V14.01,2013-03-06 10:22:00,
2013-03-06 05:24:00,63.5,59.6,30.04,NW,321,0.0,1.0,87,0.00,,FEW,0.00,0.00,VWS V14.01,2013-03-06 10:24:00,
2013-03-06 05:25:00,63.5,59.6,30.04,NW,321,0.0,1.0,87,0.00,,FEW,0.00,0.00,VWS V14.01,2013-03-06 10:25:00,
2013-03-06 05:26:00,63.5,59.6,30.04,NW,321,0.0,1.0,87,0.00,,FEW,0.00,0.00,VWS V14.01,2013-03-06 10:26:00,
2013-03-06 05:27:00,63.5,59.6,30.04,NW,321,0.0,1.0,87,0.00,,FEW,0.00,0.00,VWS V14.01,2013-03-06 10:27:00,
2013-03-06 05:29:00,63.4,59.5,30.04,NW,321,0.0,1.0,87,0.00,,FEW,0.00,0.00,VWS V14.01,2013-03-06 10:29:00,
2013-03-06 05:30:00,63.4,59.5,30.04,NW,321,0.0,1.0,87,0.00,,FEW,0.00,0.00,VWS V14.01,2013-03-06 10:30:00,
2013-03-06 05:31:00,63.4,59.5,30.05,NW,321,0.0,1.0,87,0.00,,FEW,0.00,0.00,VWS V14.01,2013-03-06 10:31:00,
2013-03-06 05:32:00,63.4,59.5,30.05,NW,321,1.0,1.0,87,0.00,,FEW,0.00,0.00,VWS V14.01,2013-03-06 10:32:00,
2013-03-06 05:34:00,63.4,59.8,30.05,NW,321,1.0,2.0,88,0.00,,FEW,0.00,0.00,VWS V14.01,2013-03-06 10:34:00,
2013-03-06 05:36:00,63.3,59.7,30.05,NW,321,1.0,2.0,88,0.00,,FEW,0.00,0.00,VWS V14.01,2013-03-06 10:36:00,
2013-03-06 05:37:00,63.3,59.7,30.05,NW,321,0.0,2.0,88,0.00,,FEW,0.00,0.00,VWS V14.01,2013-03-06 10:37:00,
2013-03-06 05:40:00,63.3,59.7,30.05,NW,321,1.0,2.0,88,0.00,,FEW,0.00,0.00,VWS V14.01,2013-03-06 10:40:00,
2013-03-06 05:41:00,63.3,59.7,30.05,NW,321,0.0,2.0,88,0.00,,FEW,0.00,0.00,VWS V14.01,2013-03-06 10:41:00,
2013-03-06 05:42:00,63.3,59.7,30.05,NW,321,1.0,1.0,88,0.00,,FEW,0.00,0.00,VWS V14.01,2013-03-06 10:42:00,
2013-03-06 05:45:00,63.3,59.7,30.05,NW,321,0.0,1.0,88,0.00,,FEW,0.00,0.00,VWS V14.01,2013-03-06 10:45:00,
2013-03-06 05:46:00,63.2,59.6,30.05,NW,321,1.0,1.0,88,0.00,,FEW,0.00,0.00,VWS V14.01,2013-03-06 10:46:00,
2013-03-06 05:47:00,63.2,59.6,30.05,NW,321,1.0,2.0,88,0.00,,FEW,0.00,0.00,VWS V14.01,2013-03-06 10:47:00,
2013-03-06 05:50:00,63.2,59.6,30.05,NW,321,0.0,2.0,88,0.00,,FEW,0.00,0.00,VWS V14.01,2013-03-06 10:50:00,
2013-03-06 05:51:00,63.1,59.5,30.05,NW,321,1.0,2.0,88,0.00,,FEW,0.00,0.00,VWS V14.01,2013-03-06 10:51:00,
2013-03-06 05:52:00,63.1,59.5,30.05,NW,321,1.0,1.0,88,0.00,,FEW,0.00,0.00,VWS V14.01,2013-03-06 10:52:00,
2013-03-06 05:55:00,63.1,59.5,30.05,NW,321,1.0,1.0,88,0.00,,FEW,0.00,0.00,VWS V14.01,2013-03-06 10:55:00,
2013-03-06 05:56:00,63.1,59.5,30.05,NW,321,1.0,1.0,88,0.00,,FEW,0.00,0.00,VWS V14.01,2013-03-06 10:56:00,
2013-03-06 05:57:00,63.0,59.4,30.05,NW,321,1.0,2.0,88,0.00,,FEW,0.00,0.00,VWS V14.01,2013-03-06 10:57:00,
2013-03-06 06:00:00,62.9,59.3,30.05,NW,321,1.0,2.0,88,0.00,,FEW,0.00,0.00,VWS V14.01,2013-03-06 11:00:00,
2013-03-06 06:01:00,62.9,59.3,30.06,NW,321,1.0,2.0,88,0.00,,FEW,0.00,0.00,VWS V14.01,2013-03-06 11:01:00,
2013-03-06 06:02:00,62.9,59.3,30.06,NW,321,0.0,1.0,88,0.00,,FEW,0.00,0.00,VWS V14.01,2013-03-06 11:02:00,
2013-03-06 06:05:00,62.8,59.2,30.06,NW,321,1.0,1.0,88,0.00,,FEW,0.00,0.00,VWS V14.01,2013-03-06 11:05:00,
2013-03-06 06:06:00,62.8,59.2,30.06,NW,321,0.0,1.0,88,0.00,,FEW,0.00,0.00,VWS V14.01,2013-03-06 11:06:00,
2013-03-06 06:07:00,62.8,59.2,30.06,NW,321,1.0,1.0,88,0.00,,FEW,0.00,0.00,VWS V14.01,2013-03-06 11:07:00,
2013-03-06 06:11:00,62.7,59.1,30.06,NW,321,0.0,1.0,88,0.00,,FEW,0.00,0.00,VWS V14.01,2013-03-06 11:11:00,
2013-03-06 06:13:00,62.7,59.1,30.06,NW,321,0.0,0.0,88,0.00,,FEW,0.00,0.00,VWS V14.01,2013-03-06 11:13:00,
2013-03-06 06:16:00,62.6,59.0,30.06,NW,321,0.0,0.0,88,0.00,,FEW,0.00,0.00,VWS V14.01,2013-03-06 11:16:00,
2013-03-06 06:18:00,62.6,59.0,30.06,NW,321,1.0,1.0,88,0.00,,FEW,0.00,0.00,VWS V14.01,2013-03-06 11:18:00,
2013-03-06 06:21:00,62.5,58.9,30.06,NW,321,0.0,1.0,88,0.00,,FEW,0.00,0.00,VWS V14.01,2013-03-06 11:21:00,
2013-03-06 06:22:00,62.5,58.9,30.06,NW,321,1.0,1.0,88,0.00,,FEW,0.00,0.00,VWS V14.01,2013-03-06 11:22:00,
2013-03-06 06:23:00,62.5,58.9,30.06,NW,321,2.0,2.0,88,0.00,,FEW,0.00,0.00,VWS V14.01,2013-03-06 11:23:00,
2013-03-06 06:26:00,62.5,58.9,30.06,NW,306,2.0,3.0,88,0.00,,FEW,0.00,0.00,VWS V14.01,2013-03-06 11:26:00,
2013-03-06 06:27:00,62.4,59.1,30.06,NW,306,4.0,4.0,89,0.00,,FEW,0.00,0.00,VWS V14.01,2013-03-06 11:27:00,
2013-03-06 06:28:00,62.5,59.2,30.06,NW,305,3.0,4.0,89,0.00,,FEW,0.00,0.00,VWS V14.01,2013-03-06 11:28:00,
2013-03-06 06:31:00,62.5,59.2,30.07,NW,308,2.0,4.0,89,0.00,,FEW,0.00,0.00,VWS V14.01,2013-03-06 11:31:00,
2013-03-06 06:32:00,62.5,59.2,30.07,NW,310,2.0,2.0,89,0.00,,FEW,0.00,0.00,VWS V14.01,2013-03-06 11:32:00,
2013-03-06 06:33:00,62.5,59.2,30.07,WNW,302,2.0,3.0,89,0.00,,FEW,0.00,0.00,VWS V14.01,2013-03-06 11:33:00,
2013-03-06 06:36:00,62.5,59.2,30.07,NW,306,2.0,3.0,89,0.00,,FEW,0.00,0.00,VWS V14.01,2013-03-06 11:36:00,
2013-03-06 06:37:00,62.6,59.3,30.07,NW,311,2.0,3.0,89,0.00,,FEW,0.00,0.00,VWS V14.01,2013-03-06 11:37:00,
2013-03-06 06:38:00,62.6,59.3,30.07,North,355,1.0,3.0,89,0.00,,FEW,0.00,0.00,VWS V14.01,2013-03-06 11:38:00,
2013-03-06 06:41:00,62.6,59.3,30.07,WNW,300,2.0,4.0,89,0.00,,FEW,0.00,0.00,VWS V14.01,2013-03-06 11:41:00,
2013-03-06 06:42:00,62.7,59.4,30.07,WNW,297,0.0,2.0,89,0.00,,FEW,0.00,5.00,VWS V14.01,2013-03-06 11:42:00,
2013-03-06 06:43:00,62.7,59.4,30.07,WNW,297,1.0,2.0,89,0.00,,FEW,0.00,5.00,VWS V14.01,2013-03-06 11:43:00,
2013-03-06 06:46:00,62.7,59.7,30.08,WNW,298,2.0,3.0,90,0.00,,FEW,0.00,7.00,VWS V14.01,2013-03-06 11:46:00,
2013-03-06 06:47:00,62.8,59.8,30.08,NW,308,0.0,3.0,90,0.00,,FEW,0.00,7.00,VWS V14.01,2013-03-06 11:47:00,
2013-03-06 06:48:00,62.8,59.8,30.08,WNW,288,1.0,4.0,90,0.00,,FEW,0.00,9.00,VWS V14.01,2013-03-06 11:48:00,
2013-03-06 06:51:00,62.9,59.9,30.08,WNW,289,2.0,4.0,90,0.00,,FEW,0.00,11.00,VWS V14.01,2013-03-06 11:51:00,
2013-03-06 06:52:00,63.0,60.0,30.08,WNW,301,2.0,3.0,90,0.00,,FEW,0.00,11.00,VWS V14.01,2013-03-06 11:52:00,
2013-03-06 06:53:00,63.0,60.0,30.08,WNW,300,0.0,3.0,90,0.00,,FEW,0.00,11.00,VWS V14.01,2013-03-06 11:53:00,
2013-03-06 06:56:00,63.1,60.1,30.08,WNW,289,0.0,3.0,90,0.00,,FEW,0.00,12.00,VWS V14.01,2013-03-06 11:56:00,
2013-03-06 06:58:00,63.1,60.1,30.08,WNW,296,0.0,3.0,90,0.00,,FEW,0.00,14.00,VWS V14.01,2013-03-06 11:58:00,
2013-03-06 06:59:00,63.1,60.1,30.08,WNW,291,2.0,4.0,90,0.00,,FEW,0.00,14.00,VWS V14.01,2013-03-06 11:59:00,
2013-03-06 07:01:00,63.2,60.2,30.08,West,276,1.0,4.0,90,0.00,,FEW,0.00,16.00,VWS V14.01,2013-03-06 12:01:00,
2013-03-06 07:03:00,63.2,60.2,30.08,West,270,3.0,3.0,90,0.00,,FEW,0.00,16.00,VWS V14.01,2013-03-06 12:03:00,
2013-03-06 07:04:00,63.3,60.3,30.08,West,267,1.0,3.0,90,0.00,,FEW,0.00,18.00,VWS V14.01,2013-03-06 12:04:00,
2013-03-06 07:06:00,63.4,60.4,30.08,West,273,4.0,4.0,90,0.00,,FEW,0.00,18.00,VWS V14.01,2013-03-06 12:06:00,
2013-03-06 07:08:00,63.4,60.4,30.08,WSW,254,4.0,4.0,90,0.00,,FEW,0.00,19.00,VWS V14.01,2013-03-06 12:08:00,
2013-03-06 07:09:00,63.5,60.5,30.08,WNW,282,3.0,5.0,90,0.00,,FEW,0.00,19.00,VWS V14.01,2013-03-06 12:09:00,
2013-03-06 07:11:00,63.6,60.6,30.08,WNW,282,3.0,5.0,90,0.00,,FEW,0.00,21.00,VWS V14.01,2013-03-06 12:11:00,
2013-03-06 07:12:00,63.6,60.6,30.08,West,276,1.0,2.0,90,0.00,,FEW,0.00,21.00,VWS V14.01,2013-03-06 12:12:00,
2013-03-06 07:13:00,63.7,60.7,30.08,WNW,283,1.0,3.0,90,0.00,,FEW,0.00,21.00,VWS V14.01,2013-03-06 12:13:00,
2013-03-06 07:14:00,63.7,60.7,30.08,WNW,285,2.0,3.0,90,0.00,,FEW,0.00,25.00,VWS V14.01,2013-03-06 12:14:00,
2013-03-06 07:16:00,63.8,60.8,30.08,West,276,2.0,3.0,90,0.00,,FEW,0.00,65.00,VWS V14.01,2013-03-06 12:16:00,
2013-03-06 07:17:00,63.8,60.8,30.08,WNW,286,2.0,3.0,90,0.00,,FEW,0.00,65.00,VWS V14.01,2013-03-06 12:17:00,
2013-03-06 07:18:00,63.8,60.8,30.08,WNW,285,2.0,3.0,90,0.00,,FEW,0.00,35.00,VWS V14.01,2013-03-06 12:18:00,
2013-03-06 07:19:00,63.9,60.9,30.08,West,281,1.0,3.0,90,0.00,,FEW,0.00,47.00,VWS V14.01,2013-03-06 12:19:00,
2013-03-06 07:21:00,64.0,61.0,30.08,West,277,2.0,3.0,90,0.00,,FEW,0.00,102.00,VWS V14.01,2013-03-06 12:21:00,
2013-03-06 07:22:00,64.0,61.0,30.08,West,271,2.0,2.0,90,0.00,,FEW,0.00,102.00,VWS V14.01,2013-03-06 12:22:00,
2013-03-06 07:23:00,64.0,61.0,30.08,WNW,289,1.0,3.0,90,0.00,,FEW,0.00,95.00,VWS V14.01,2013-03-06 12:23:00,
2013-03-06 07:24:00,64.0,61.0,30.08,West,273,2.0,3.0,90,0.00,,FEW,0.00,58.00,VWS V14.01,2013-03-06 12:24:00,
2013-03-06 07:27:00,64.2,61.2,30.08,West,269,3.0,4.0,90,0.00,,FEW,0.00,77.00,VWS V14.01,2013-03-06 12:27:00,
2013-03-06 07:28:00,64.3,61.0,30.08,WNW,290,4.0,6.0,89,0.00,,FEW,0.00,70.00,VWS V14.01,2013-03-06 12:28:00,
2013-03-06 07:29:00,64.3,61.0,30.08,WNW,294,3.0,6.0,89,0.00,,FEW,0.00,63.00,VWS V14.01,2013-03-06 12:29:00,
2013-03-06 07:32:00,64.5,61.2,30.09,WNW,284,4.0,6.0,89,0.00,,FEW,0.00,109.00,VWS V14.01,2013-03-06 12:32:00,
2013-03-06 07:33:00,64.5,61.2,30.09,West,277,2.0,4.0,89,0.00,,FEW,0.00,123.00,VWS V14.01,2013-03-06 12:33:00,
2013-03-06 07:34:00,64.6,61.3,30.09,WNW,299,1.0,4.0,89,0.00,,FEW,0.00,77.00,VWS V14.01,2013-03-06 12:34:00,
2013-03-06 07:37:00,64.7,61.4,30.09,West,273,1.0,5.0,89,0.00,,FEW,0.00,121.00,VWS V14.01,2013-03-06 12:37:00,
2013-03-06 07:38:00,64.8,61.5,30.09,NW,307,3.0,5.0,89,0.00,,FEW,0.00,130.00,VWS V14.01,2013-03-06 12:38:00,
2013-03-06 07:39:00,64.9,61.3,30.09,WSW,254,2.0,6.0,88,0.00,,FEW,0.00,120.00,VWS V14.01,2013-03-06 12:39:00,
2013-03-06 07:42:00,65.1,61.5,30.09,West,273,5.0,5.0,88,0.00,,FEW,0.00,171.00,VWS V14.01,2013-03-06 12:42:00,
2013-03-06 07:43:00,65.2,61.6,30.09,WSW,253,3.0,5.0,88,0.00,,FEW,0.00,174.00,VWS V14.01,2013-03-06 12:43:00,
2013-03-06 07:45:00,65.3,61.7,30.09,West,281,4.0,6.0,88,0.00,,FEW,0.00,153.00,VWS V14.01,2013-03-06 12:45:00,
2013-03-06 07:47:00,65.5,61.5,30.09,WNW,288,3.0,6.0,87,0.00,,FEW,0.00,160.00,VWS V14.01,2013-03-06 12:47:00,
2013-03-06 07:49:00,65.6,61.6,30.09,West,267,4.0,6.0,87,0.00,,FEW,0.00,171.00,VWS V14.01,2013-03-06 12:49:00,
2013-03-06 07:50:00,65.7,61.7,30.09,West,278,3.0,7.0,87,0.00,,FEW,0.00,179.00,VWS V14.01,2013-03-06 12:50:00,
2013-03-06 07:52:00,65.9,61.9,30.09,WSW,252,5.0,5.0,87,0.00,,FEW,0.00,188.00,VWS V14.01,2013-03-06 12:52:00,
2013-03-06 07:54:00,66.1,61.8,30.09,WSW,257,2.0,7.0,86,0.00,,FEW,0.00,214.00,VWS V14.01,2013-03-06 12:54:00,
2013-03-06 07:55:00,66.2,61.9,30.09,West,280,6.0,7.0,86,0.00,,FEW,0.00,218.00,VWS V14.01,2013-03-06 12:55:00,
2013-03-06 07:57:00,66.4,62.1,30.09,West,266,3.0,7.0,86,0.00,,FEW,0.00,230.00,VWS V14.01,2013-03-06 12:57:00,
2013-03-06 07:59:00,66.5,61.9,30.09,WNW,291,1.0,7.0,85,0.00,,FEW,0.00,234.00,VWS V14.01,2013-03-06 12:59:00,
2013-03-06 08:00:00,66.6,62.0,30.09,WNW,298,1.0,7.0,85,0.00,,FEW,0.00,237.00,VWS V14.01,2013-03-06 13:00:00,
2013-03-06 08:02:00,66.8,62.2,30.10,West,272,5.0,6.0,85,0.00,,FEW,0.00,248.00,VWS V14.01,2013-03-06 13:02:00,
2013-03-06 08:04:00,66.9,61.9,30.10,West,264,2.0,6.0,84,0.00,,FEW,0.00,257.00,VWS V14.01,2013-03-06 13:04:00,
2013-03-06 08:05:00,67.0,62.0,30.10,WNW,286,3.0,6.0,84,0.00,,FEW,0.00,260.00,VWS V14.01,2013-03-06 13:05:00,
2013-03-06 08:07:00,67.2,62.2,30.10,WNW,286,6.0,6.0,84,0.00,,FEW,0.00,269.00,VWS V14.01,2013-03-06 13:07:00,
2013-03-06 08:08:00,67.3,62.3,30.10,West,281,5.0,6.0,84,0.00,,FEW,0.00,272.00,VWS V14.01,2013-03-06 13:08:00,
2013-03-06 08:09:00,67.3,62.0,30.10,WNW,288,6.0,8.0,83,0.00,,FEW,0.00,276.00,VWS V14.01,2013-03-06 13:09:00,
2013-03-06 08:10:00,67.4,62.1,30.10,WSW,254,2.0,8.0,83,0.00,,FEW,0.00,279.00,VWS V14.01,2013-03-06 13:10:00,
2013-03-06 08:13:00,67.6,62.3,30.10,West,263,3.0,6.0,83,0.00,,FEW,0.00,292.00,VWS V14.01,2013-03-06 13:13:00,
2013-03-06 08:14:00,67.7,62.0,30.10,WSW,255,4.0,6.0,82,0.00,,FEW,0.00,295.00,VWS V14.01,2013-03-06 13:14:00,
2013-03-06 08:15:00,67.8,62.1,30.10,West,269,2.0,6.0,82,0.00,,FEW,0.00,299.00,VWS V14.01,2013-03-06 13:15:00,
2013-03-06 08:18:00,68.1,62.4,30.10,WNW,291,5.0,6.0,82,0.00,,FEW,0.00,311.00,VWS V14.01,2013-03-06 13:18:00,
2013-03-06 08:19:00,68.1,62.1,30.10,WNW,294,3.0,6.0,81,0.00,,FEW,0.00,313.00,VWS V14.01,2013-03-06 13:19:00,
2013-03-06 08:20:00,68.2,62.2,30.10,WSW,242,5.0,9.0,81,0.00,,FEW,0.00,304.00,VWS V14.01,2013-03-06 13:20:00,
2013-03-06 08:23:00,68.4,62.0,30.10,West,261,4.0,7.0,80,0.00,,FEW,0.00,330.00,VWS V14.01,2013-03-06 13:23:00,
2013-03-06 08:24:00,68.5,62.1,30.10,WSW,248,4.0,7.0,80,0.00,,FEW,0.00,336.00,VWS V14.01,2013-03-06 13:24:00,
2013-03-06 08:25:00,68.6,62.2,30.10,WSW,247,2.0,7.0,80,0.00,,FEW,0.00,339.00,VWS V14.01,2013-03-06 13:25:00,
2013-03-06 08:28:00,68.9,62.1,30.10,WSW,256,1.0,7.0,79,0.00,,FEW,0.00,348.00,VWS V14.01,2013-03-06 13:28:00,
2013-03-06 08:29:00,69.0,62.2,30.10,WNW,297,2.0,7.0,79,0.00,,FEW,0.00,352.00,VWS V14.01,2013-03-06 13:29:00,
2013-03-06 08:30:00,69.1,62.3,30.10,West,281,7.0,7.0,79,0.00,,FEW,0.00,355.00,VWS V14.01,2013-03-06 13:30:00,
2013-03-06 08:33:00,69.3,62.2,30.10,West,275,2.0,5.0,78,0.00,,FEW,0.00,367.00,VWS V14.01,2013-03-06 13:33:00,
2013-03-06 08:34:00,69.4,62.2,30.10,West,263,1.0,5.0,78,0.00,,FEW,0.00,371.00,VWS V14.01,2013-03-06 13:34:00,
2013-03-06 08:35:00,69.5,62.3,30.10,NW,306,4.0,7.0,78,0.00,,FEW,0.00,374.00,VWS V14.01,2013-03-06 13:35:00,
2013-03-06 08:38:00,69.7,62.2,30.10,West,277,4.0,8.0,77,0.00,,FEW,0.00,388.00,VWS V14.01,2013-03-06 13:38:00,
2013-03-06 08:39:00,69.7,62.2,30.10,West,261,5.0,8.0,77,0.00,,FEW,0.00,388.00,VWS V14.01,2013-03-06 13:39:00,
2013-03-06 08:40:00,69.8,62.3,30.10,WNW,298,4.0,8.0,77,0.00,,FEW,0.00,392.00,VWS V14.01,2013-03-06 13:40:00,
2013-03-06 08:43:00,69.9,62.0,30.10,West,279,3.0,6.0,76,0.00,,FEW,0.00,404.00,VWS V14.01,2013-03-06 13:43:00,
2013-03-06 08:44:00,69.9,62.0,30.10,West,277,7.0,7.0,76,0.00,,FEW,0.00,404.00,VWS V14.01,2013-03-06 13:44:00,
2013-03-06 08:45:00,70.0,62.1,30.10,WNW,288,2.0,7.0,76,0.00,,FEW,0.00,411.00,VWS V14.01,2013-03-06 13:45:00,
2013-03-06 08:48:00,70.3,62.4,30.10,WNW,299,7.0,8.0,76,0.00,,FEW,0.00,420.00,VWS V14.01,2013-03-06 13:48:00,
2013-03-06 08:49:00,70.3,62.4,30.10,WNW,286,6.0,8.0,76,0.00,,FEW,0.00,427.00,VWS V14.01,2013-03-06 13:49:00,
2013-03-06 08:50:00,70.4,62.1,30.10,West,261,4.0,8.0,75,0.00,,FEW,0.00,427.00,VWS V14.01,2013-03-06 13:50:00,
2013-03-06 08:53:00,70.4,62.1,30.10,WSW,248,6.0,7.0,75,0.00,,FEW,0.00,439.00,VWS V14.01,2013-03-06 13:53:00,
2013-03-06 08:54:00,70.5,62.2,30.10,WNW,286,2.0,7.0,75,0.00,,FEW,0.00,445.00,VWS V14.01,2013-03-06 13:54:00,
2013-03-06 08:55:00,70.5,61.8,30.10,West,281,0.0,7.0,74,0.00,,FEW,0.00,446.00,VWS V14.01,2013-03-06 13:55:00,
2013-03-06 08:58:00,70.8,62.1,30.10,West,263,3.0,7.0,74,0.00,,FEW,0.00,462.00,VWS V14.01,2013-03-06 13:58:00,
2013-03-06 08:59:00,70.8,62.1,30.10,WNW,284,2.0,7.0,74,0.00,,FEW,0.00,462.00,VWS V14.01,2013-03-06 13:59:00,
2013-03-06 09:00:00,71.0,62.3,30.10,West,262,4.0,7.0,74,0.00,,FEW,0.00,466.00,VWS V14.01,2013-03-06 14:00:00,
2013-03-06 09:04:00,71.1,62.0,30.10,SW,236,4.0,7.0,73,0.00,,FEW,0.00,478.00,VWS V14.01,2013-03-06 14:04:00,
2013-03-06 09:05:00,71.2,62.1,30.10,West,276,5.0,7.0,73,0.00,,FEW,0.00,482.00,VWS V14.01,2013-03-06 14:05:00,
2013-03-06 09:09:00,71.4,62.3,30.10,WSW,245,5.0,8.0,73,0.00,,FEW,0.00,490.00,VWS V14.01,2013-03-06 14:09:00,
2013-03-06 09:10:00,71.5,62.4,30.10,WSW,248,7.0,8.0,73,0.00,,FEW,0.00,496.00,VWS V14.01,2013-03-06 14:10:00,
2013-03-06 09:11:00,71.5,62.4,30.10,WSW,250,5.0,8.0,73,0.00,,FEW,0.00,496.00,VWS V14.01,2013-03-06 14:11:00,
2013-03-06 09:14:00,71.6,62.1,30.10,SW,222,6.0,7.0,72,0.00,,FEW,0.00,510.00,VWS V14.01,2013-03-06 14:14:00,
2013-03-06 09:16:00,71.6,62.1,30.10,West,261,7.0,10.0,72,0.00,,FEW,0.00,515.00,VWS V14.01,2013-03-06 14:16:00,
2013-03-06 09:19:00,71.7,62.2,30.10,WSW,252,3.0,10.0,72,0.00,,FEW,0.00,526.00,VWS V14.01,2013-03-06 14:19:00,
2013-03-06 09:21:00,71.8,62.3,30.10,WNW,302,4.0,10.0,72,0.00,,FEW,0.00,531.00,VWS V14.01,2013-03-06 14:21:00,
2013-03-06 09:24:00,72.0,62.1,30.10,WSW,258,2.0,8.0,71,0.00,,FEW,0.00,541.00,VWS V14.01,2013-03-06 14:24:00,
2013-03-06 09:26:00,72.1,62.2,30.10,WNW,302,8.0,9.0,71,0.00,,FEW,0.00,550.00,VWS V14.01,2013-03-06 14:26:00,
2013-03-06 09:29:00,72.1,61.8,30.10,SW,229,9.0,9.0,70,0.00,,FEW,0.00,571.00,VWS V14.01,2013-03-06 14:29:00,
2013-03-06 09:31:00,72.1,61.8,30.11,WSW,248,8.0,9.0,70,0.00,,FEW,0.00,522.00,VWS V14.01,2013-03-06 14:31:00,
2013-03-06 09:34:00,72.2,62.3,30.11,South,183,5.0,9.0,71,0.00,,FEW,0.00,589.00,VWS V14.01,2013-03-06 14:34:00,
2013-03-06 09:35:00,72.2,62.3,30.11,West,267,7.0,9.0,71,0.00,,FEW,0.00,589.00,VWS V14.01,2013-03-06 14:35:00,
2013-03-06 09:36:00,72.2,62.3,30.11,WNW,302,6.0,11.0,71,0.00,,FEW,0.00,598.00,VWS V14.01,2013-03-06 14:36:00,
2013-03-06 09:39:00,72.3,62.4,30.11,West,272,6.0,11.0,71,0.00,,FEW,0.00,642.00,VWS V14.01,2013-03-06 14:39:00,
2013-03-06 09:40:00,72.4,62.5,30.11,WSW,249,7.0,11.0,71,0.00,,FEW,0.00,642.00,VWS V14.01,2013-03-06 14:40:00,
2013-03-06 09:41:00,72.4,62.1,30.11,NW,313,5.0,11.0,70,0.00,,FEW,0.00,642.00,VWS V14.01,2013-03-06 14:41:00,
2013-03-06 09:44:00,72.3,62.0,30.11,WSW,240,3.0,7.0,70,0.00,,FEW,0.00,613.00,VWS V14.01,2013-03-06 14:44:00,
2013-03-06 09:45:00,72.3,62.0,30.11,SW,236,7.0,9.0,70,0.00,,FEW,0.00,613.00,VWS V14.01,2013-03-06 14:45:00,
2013-03-06 09:46:00,72.3,62.0,30.11,WSW,256,7.0,9.0,70,0.00,,FEW,0.00,613.00,VWS V14.01,2013-03-06 14:46:00,
2013-03-06 09:49:00,72.4,62.1,30.11,WSW,244,5.0,9.0,70,0.00,,FEW,0.00,619.00,VWS V14.01,2013-03-06 14:49:00,
2013-03-06 09:50:00,72.4,62.1,30.11,West,263,7.0,9.0,70,0.00,,FEW,0.00,619.00,VWS V14.01,2013-03-06 14:50:00,
2013-03-06 09:51:00,72.5,62.2,30.11,WSW,253,3.0,9.0,70,0.00,,FEW,0.00,619.00,VWS V14.01,2013-03-06 14:51:00,
2013-03-06 09:54:00,72.6,61.9,30.11,WNW,298,3.0,9.0,69,0.00,,FEW,0.00,638.00,VWS V14.01,2013-03-06 14:54:00,
2013-03-06 09:55:00,72.6,61.9,30.11,West,278,4.0,9.0,69,0.00,,FEW,0.00,642.00,VWS V14.01,2013-03-06 14:55:00,
2013-03-06 09:56:00,72.8,62.5,30.11,SW,225,4.0,9.0,70,0.00,,FEW,0.00,642.00,VWS V14.01,2013-03-06 14:56:00,
2013-03-06 09:59:00,73.1,62.3,30.11,West,279,6.0,9.0,69,0.00,,FEW,0.00,647.00,VWS V14.01,2013-03-06 14:59:00,
2013-03-06 10:00:00,73.2,62.4,30.11,West,262,9.0,9.0,69,0.00,,FEW,0.00,654.00,VWS V14.01,2013-03-06 15:00:00,
2013-03-06 10:01:00,73.1,62.3,30.11,West,271,5.0,9.0,69,0.00,,FEW,0.00,654.00,VWS V14.01,2013-03-06 15:01:00,
2013-03-06 10:04:00,73.2,62.4,30.11,WNW,299,5.0,10.0,69,0.00,,FEW,0.00,661.00,VWS V14.01,2013-03-06 15:04:00,
2013-03-06 10:05:00,73.2,62.4,30.11,West,260,3.0,10.0,69,0.00,,FEW,0.00,661.00,VWS V14.01,2013-03-06 15:05:00,
2013-03-06 10:06:00,73.2,62.4,30.11,WSW,254,5.0,10.0,69,0.00,,FEW,0.00,668.00,VWS V14.01,2013-03-06 15:06:00,
2013-03-06 10:07:00,73.2,62.4,30.11,WNW,291,12.0,12.0,69,0.00,,FEW,0.00,668.00,VWS V14.01,2013-03-06 15:07:00,
2013-03-06 10:10:00,73.3,62.1,30.11,WNW,294,9.0,12.0,68,0.00,,FEW,0.00,679.00,VWS V14.01,2013-03-06 15:10:00,
2013-03-06 10:11:00,73.3,62.5,30.11,WNW,283,4.0,12.0,69,0.00,,FEW,0.00,684.00,VWS V14.01,2013-03-06 15:11:00,
2013-03-06 10:12:00,73.3,62.5,30.11,West,261,8.0,8.0,69,0.00,,FEW,0.00,684.00,VWS V14.01,2013-03-06 15:12:00,
2013-03-06 10:15:00,73.4,62.2,30.11,West,281,8.0,11.0,68,0.00,,FEW,0.00,693.00,VWS V14.01,2013-03-06 15:15:00,
2013-03-06 10:17:00,73.5,62.3,30.11,SW,229,6.0,11.0,68,0.00,,FEW,0.00,696.00,VWS V14.01,2013-03-06 15:17:00,
2013-03-06 10:20:00,73.7,62.5,30.11,WNW,292,7.0,11.0,68,0.00,,FEW,0.00,703.00,VWS V14.01,2013-03-06 15:20:00,
2013-03-06 10:22:00,73.8,62.6,30.11,West,274,5.0,7.0,68,0.00,,FEW,0.00,710.00,VWS V14.01,2013-03-06 15:22:00,
2013-03-06 10:25:00,74.1,62.5,30.11,WNW,293,3.0,9.0,67,0.00,,FEW,0.00,717.00,VWS V14.01,2013-03-06 15:25:00,
2013-03-06 10:27:00,74.3,62.6,30.11,NW,315,8.0,11.0,67,0.00,,FEW,0.00,722.00,VWS V14.01,2013-03-06 15:27:00,
2013-03-06 10:30:00,74.4,61.9,30.11,SW,226,6.0,11.0,65,0.00,,FEW,0.00,728.00,VWS V14.01,2013-03-06 15:30:00,
2013-03-06 10:32:00,74.5,62.0,30.11,West,263,10.0,10.0,65,0.00,,FEW,0.00,731.00,VWS V14.01,2013-03-06 15:32:00,
2013-03-06 10:35:00,74.7,62.2,30.11,West,273,2.0,10.0,65,0.00,,FEW,0.00,744.00,VWS V14.01,2013-03-06 15:35:00,
2013-03-06 10:37:00,74.8,61.8,30.11,WSW,237,5.0,11.0,64,0.00,,FEW,0.00,747.00,VWS V14.01,2013-03-06 15:37:00,
2013-03-06 10:40:00,74.6,61.6,30.11,SW,225,7.0,11.0,64,0.00,,FEW,0.00,758.00,VWS V14.01,2013-03-06 15:40:00,
2013-03-06 10:41:00,74.6,61.6,30.11,SW,225,7.0,11.0,64,0.00,,FEW,0.00,758.00,VWS V14.01,2013-03-06 15:41:00,
2013-03-06 10:42:00,74.5,62.0,30.11,SSW,209,6.0,8.0,65,0.00,,FEW,0.00,763.00,VWS V14.01,2013-03-06 15:42:00,
2013-03-06 10:46:00,74.4,61.4,30.10,SW,232,7.0,10.0,64,0.00,,FEW,0.00,728.00,VWS V14.01,2013-03-06 15:46:00,
2013-03-06 10:47:00,74.5,62.0,30.10,WSW,254,10.0,10.0,65,0.00,,FEW,0.00,768.00,VWS V14.01,2013-03-06 15:47:00,
2013-03-06 10:48:00,74.5,62.0,30.10,West,261,6.0,10.0,65,0.00,,FEW,0.00,768.00,VWS V14.01,2013-03-06 15:48:00,
2013-03-06 10:51:00,74.8,60.9,30.10,WSW,238,4.0,11.0,62,0.00,,FEW,0.00,779.00,VWS V14.01,2013-03-06 15:51:00,
2013-03-06 10:52:00,75.1,61.2,30.10,SW,220,4.0,8.0,62,0.00,,FEW,0.00,782.00,VWS V14.01,2013-03-06 15:52:00,
2013-03-06 10:53:00,75.1,61.2,30.10,West,270,2.0,8.0,62,0.00,,FEW,0.00,782.00,VWS V14.01,2013-03-06 15:53:00,
2013-03-06 10:56:00,75.3,61.8,30.10,West,275,6.0,10.0,63,0.00,,FEW,0.00,789.00,VWS V14.01,2013-03-06 15:56:00,
2013-03-06 10:57:00,75.6,61.2,30.10,West,274,5.0,10.0,61,0.00,,FEW,0.00,768.00,VWS V14.01,2013-03-06 15:57:00,
2013-03-06 10:58:00,75.6,61.2,30.10,West,263,10.0,11.0,61,0.00,,FEW,0.00,768.00,VWS V14.01,2013-03-06 15:58:00,
2013-03-06 11:01:00,75.8,61.4,30.11,SW,236,7.0,11.0,61,0.00,,FEW,0.00,798.00,VWS V14.01,2013-03-06 16:01:00,
2013-03-06 11:02:00,75.8,61.4,30.11,SW,220,6.0,9.0,61,0.00,,FEW,0.00,800.00,VWS V14.01,2013-03-06 16:02:00,
2013-03-06 11:03:00,75.8,60.9,30.11,West,276,4.0,9.0,60,0.00,,FEW,0.00,800.00,VWS V14.01,2013-03-06 16:03:00,
2013-03-06 11:06:00,75.8,61.4,30.11,WSW,253,6.0,9.0,61,0.00,,FEW,0.00,809.00,VWS V14.01,2013-03-06 16:06:00,
2013-03-06 11:08:00,75.7,61.3,30.11,SW,235,8.0,9.0,61,0.00,,FEW,0.00,810.00,VWS V14.01,2013-03-06 16:08:00,
2013-03-06 11:11:00,76.3,61.4,30.11,West,274,8.0,10.0,60,0.00,,FEW,0.00,816.00,VWS V14.01,2013-03-06 16:11:00,
2013-03-06 11:13:00,76.6,61.7,30.11,SW,224,4.0,7.0,60,0.00,,FEW,0.00,817.00,VWS V14.01,2013-03-06 16:13:00,
2013-03-06 11:16:00,76.9,62.0,30.11,NNW,338,3.0,7.0,60,0.00,,FEW,0.00,823.00,VWS V14.01,2013-03-06 16:16:00,
2013-03-06 11:18:00,77.0,61.6,30.11,SW,225,5.0,8.0,59,0.00,,FEW,0.00,828.00,VWS V14.01,2013-03-06 16:18:00,
2013-03-06 11:21:00,77.3,61.9,30.11,SW,234,7.0,9.0,59,0.00,,FEW,0.00,833.00,VWS V14.01,2013-03-06 16:21:00,
2013-03-06 11:23:00,77.2,61.3,30.11,WNW,300,5.0,7.0,58,0.00,,FEW,0.00,835.00,VWS V14.01,2013-03-06 16:23:00,
2013-03-06 11:26:00,77.1,61.7,30.11,NW,309,3.0,10.0,59,0.00,,FEW,0.00,840.00,VWS V14.01,2013-03-06 16:26:00,
2013-03-06 11:27:00,77.0,61.6,30.11,WNW,296,5.0,10.0,59,0.00,,FEW,0.00,840.00,VWS V14.01,2013-03-06 16:27:00,
2013-03-06 11:28:00,77.1,61.7,30.11,SSW,194,5.0,12.0,59,0.00,,FEW,0.00,840.00,VWS V14.01,2013-03-06 16:28:00,
2013-03-06 11:32:00,77.2,61.8,30.10,WNW,300,4.0,12.0,59,0.00,,FEW,0.00,849.00,VWS V14.01,2013-03-06 16:32:00,
2013-03-06 11:33:00,77.2,61.3,30.10,West,263,5.0,7.0,58,0.00,,FEW,0.00,853.00,VWS V14.01,2013-03-06 16:33:00,
2013-03-06 11:37:00,77.3,61.4,30.10,WSW,242,3.0,11.0,58,0.00,,FEW,0.00,856.00,VWS V14.01,2013-03-06 16:37:00,
2013-03-06 11:38:00,77.2,61.8,30.10,WNW,300,5.0,11.0,59,0.00,,FEW,0.00,858.00,VWS V14.01,2013-03-06 16:38:00,
2013-03-06 11:42:00,77.1,61.7,30.10,West,263,4.0,11.0,59,0.00,,FEW,0.00,867.00,VWS V14.01,2013-03-06 16:42:00,
2013-03-06 11:43:00,77.3,61.9,30.10,West,274,6.0,7.0,59,0.00,,FEW,0.00,867.00,VWS V14.01,2013-03-06 16:43:00,
2013-03-06 11:44:00,77.3,61.9,30.10,WSW,244,6.0,7.0,59,0.00,,FEW,0.00,867.00,VWS V14.01,2013-03-06 16:44:00,
2013-03-06 11:47:00,77.2,61.8,30.09,WSW,245,6.0,10.0,59,0.00,,FEW,0.00,867.00,VWS V14.01,2013-03-06 16:47:00,
2013-03-06 11:48:00,77.1,61.7,30.09,WNW,295,7.0,10.0,59,0.00,,FEW,0.00,870.00,VWS V14.01,2013-03-06 16:48:00,
2013-03-06 11:49:00,77.2,61.8,30.09,WSW,239,3.0,10.0,59,0.00,,FEW,0.00,868.00,VWS V14.01,2013-03-06 16:49:00,
2013-03-06 11:52:00,77.6,62.2,30.09,West,262,6.0,6.0,59,0.00,,FEW,0.00,867.00,VWS V14.01,2013-03-06 16:52:00,
2013-03-06 11:54:00,77.8,61.9,30.09,West,260,3.0,7.0,58,0.00,,FEW,0.00,870.00,VWS V14.01,2013-03-06 16:54:00,
2013-03-06 11:57:00,78.0,61.5,30.09,WNW,286,2.0,10.0,57,0.00,,FEW,0.00,874.00,VWS V14.01,2013-03-06 16:57:00,
2013-03-06 11:59:00,78.1,61.6,30.09,NW,306,5.0,10.0,57,0.00,,FEW,0.00,877.00,VWS V14.01,2013-03-06 16:59:00,
2013-03-06 12:02:00,78.0,61.0,30.08,WNW,286,6.0,7.0,56,0.00,,FEW,0.00,879.00,VWS V14.01,2013-03-06 17:02:00,
2013-03-06 12:04:00,78.0,61.5,30.08,WNW,299,4.0,8.0,57,0.00,,FEW,0.00,882.00,VWS V14.01,2013-03-06 17:04:00,
2013-03-06 12:07:00,78.1,61.6,30.08,WNW,296,5.0,9.0,57,0.00,,FEW,0.00,886.00,VWS V14.01,2013-03-06 17:07:00,
2013-03-06 12:09:00,78.2,62.2,30.08,WSW,247,4.0,9.0,58,0.00,,FEW,0.00,882.00,VWS V14.01,2013-03-06 17:09:00,
2013-03-06 12:12:00,78.2,61.7,30.08,WSW,246,9.0,9.0,57,0.00,,FEW,0.00,884.00,VWS V14.01,2013-03-06 17:12:00,
2013-03-06 12:14:00,77.9,61.5,30.08,West,267,6.0,13.0,57,0.00,,FEW,0.00,886.00,VWS V14.01,2013-03-06 17:14:00,
2013-03-06 12:15:00,77.8,61.9,30.08,WSW,250,8.0,14.0,58,0.00,,FEW,0.00,886.00,VWS V14.01,2013-03-06 17:15:00,
2013-03-06 12:17:00,77.6,61.7,30.08,SW,217,6.0,14.0,58,0.00,,FEW,0.00,888.00,VWS V14.01,2013-03-06 17:17:00,
2013-03-06 12:19:00,77.5,61.6,30.08,SSW,207,9.0,14.0,58,0.00,,FEW,0.00,886.00,VWS V14.01,2013-03-06 17:19:00,
2013-03-06 12:20:00,77.5,61.6,30.08,WSW,242,8.0,14.0,58,0.00,,FEW,0.00,888.00,VWS V14.01,2013-03-06 17:20:00,
2013-03-06 12:22:00,77.4,62.0,30.08,WNW,296,10.0,10.0,59,0.00,,FEW,0.00,889.00,VWS V14.01,2013-03-06 17:22:00,
2013-03-06 12:24:00,77.4,62.0,30.08,West,263,11.0,11.0,59,0.00,,FEW,0.00,891.00,VWS V14.01,2013-03-06 17:24:00,
2013-03-06 12:25:00,77.5,62.1,30.08,SW,228,4.0,11.0,59,0.00,,FEW,0.00,889.00,VWS V14.01,2013-03-06 17:25:00,
2013-03-06 12:27:00,77.6,62.2,30.08,WNW,290,9.0,11.0,59,0.00,,FEW,0.00,889.00,VWS V14.01,2013-03-06 17:27:00,
2013-03-06 12:29:00,77.6,62.2,30.08,West,265,3.0,11.0,59,0.00,,FEW,0.00,889.00,VWS V14.01,2013-03-06 17:29:00,
2013-03-06 12:30:00,77.6,62.2,30.08,South,180,7.0,11.0,59,0.00,,FEW,0.00,889.00,VWS V14.01,2013-03-06 17:30:00,
2013-03-06 12:32:00,77.6,62.6,30.08,SW,225,5.0,10.0,60,0.00,,FEW,0.00,888.00,VWS V14.01,2013-03-06 17:32:00,
2013-03-06 12:34:00,77.5,62.1,30.08,West,273,6.0,14.0,59,0.00,,FEW,0.00,891.00,VWS V14.01,2013-03-06 17:34:00,
2013-03-06 12:35:00,77.4,62.0,30.08,WSW,250,4.0,14.0,59,0.00,,FEW,0.00,889.00,VWS V14.01,2013-03-06 17:35:00,
2013-03-06 12:37:00,77.8,62.8,30.08,WNW,288,2.0,14.0,60,0.00,,FEW,0.00,893.00,VWS V14.01,2013-03-06 17:37:00,
2013-03-06 12:39:00,78.2,62.7,30.08,WSW,252,10.0,14.0,59,0.00,,FEW,0.00,891.00,VWS V14.01,2013-03-06 17:39:00,
2013-03-06 12:40:00,78.2,62.7,30.08,WNW,282,8.0,14.0,59,0.00,,FEW,0.00,891.00,VWS V14.01,2013-03-06 17:40:00,
2013-03-06 12:42:00,78.0,62.5,30.08,WSW,248,8.0,12.0,59,0.00,,FEW,0.00,891.00,VWS V14.01,2013-03-06 17:42:00,
2013-03-06 12:44:00,77.7,62.7,30.08,NW,308,9.0,12.0,60,0.00,,FEW,0.00,889.00,VWS V14.01,2013-03-06 17:44:00,
2013-03-06 12:45:00,77.7,62.7,30.08,WSW,258,6.0,12.0,60,0.00,,FEW,0.00,889.00,VWS V14.01,2013-03-06 17:45:00,
2013-03-06 12:47:00,77.8,62.8,30.07,SW,231,3.0,12.0,60,0.00,,FEW,0.00,888.00,VWS V14.01,2013-03-06 17:47:00,
2013-03-06 12:48:00,77.9,62.9,30.07,WNW,294,6.0,12.0,60,0.00,,FEW,0.00,888.00,VWS V14.01,2013-03-06 17:48:00,
2013-03-06 12:50:00,78.1,62.6,30.07,NW,317,7.0,12.0,59,0.00,,FEW,0.00,888.00,VWS V14.01,2013-03-06 17:50:00,
2013-03-06 12:52:00,78.2,62.2,30.07,WSW,257,11.0,11.0,58,0.00,,FEW,0.00,886.00,VWS V14.01,2013-03-06 17:52:00,
2013-03-06 12:53:00,78.2,62.2,30.07,West,259,7.0,11.0,58,0.00,,FEW,0.00,888.00,VWS V14.01,2013-03-06 17:53:00,
2013-03-06 12:55:00,77.9,62.4,30.07,North,355,6.0,12.0,59,0.00,,FEW,0.00,886.00,VWS V14.01,2013-03-06 17:55:00,
2013-03-06 12:57:00,77.9,62.4,30.07,WSW,253,6.0,13.0,59,0.00,,FEW,0.00,888.00,VWS V14.01,2013-03-06 17:57:00,
2013-03-06 12:58:00,77.8,62.3,30.07,West,266,7.0,13.0,59,0.00,,FEW,0.00,884.00,VWS V14.01,2013-03-06 17:58:00,
2013-03-06 13:00:00,77.8,62.8,30.07,SW,224,10.0,13.0,60,0.00,,FEW,0.00,882.00,VWS V14.01,2013-03-06 18:00:00,
2013-03-06 13:02:00,77.8,62.8,30.07,WSW,244,9.0,16.0,60,0.00,,FEW,0.00,882.00,VWS V14.01,2013-03-06 18:02:00,
2013-03-06 13:03:00,77.7,62.7,30.07,NNW,333,6.0,16.0,60,0.00,,FEW,0.00,881.00,VWS V14.01,2013-03-06 18:03:00,
2013-03-06 13:05:00,77.8,63.3,30.07,West,279,4.0,16.0,61,0.00,,FEW,0.00,879.00,VWS V14.01,2013-03-06 18:05:00,
2013-03-06 13:07:00,77.9,62.9,30.07,WNW,296,13.0,16.0,60,0.00,,FEW,0.00,877.00,VWS V14.01,2013-03-06 18:07:00,
2013-03-06 13:09:00,77.7,62.7,30.07,SW,220,6.0,16.0,60,0.00,,FEW,0.00,874.00,VWS V14.01,2013-03-06 18:09:00,
2013-03-06 13:10:00,77.8,63.3,30.07,West,268,6.0,16.0,61,0.00,,FEW,0.00,872.00,VWS V14.01,2013-03-06 18:10:00,
2013-03-06 13:12:00,78.2,63.7,30.07,West,276,9.0,11.0,61,0.00,,FEW,0.00,870.00,VWS V14.01,2013-03-06 18:12:00,
2013-03-06 13:14:00,78.3,63.3,30.07,West,277,3.0,11.0,60,0.00,,FEW,0.00,870.00,VWS V14.01,2013-03-06 18:14:00,
2013-03-06 13:15:00,78.5,63.5,30.07,WNW,294,6.0,12.0,60,0.00,,FEW,0.00,868.00,VWS V14.01,2013-03-06 18:15:00,
2013-03-06 13:17:00,78.4,62.9,30.06,West,273,7.0,12.0,59,0.00,,FEW,0.00,868.00,VWS V14.01,2013-03-06 18:17:00,
2013-03-06 13:19:00,78.5,63.0,30.06,West,280,5.0,12.0,59,0.00,,FEW,0.00,870.00,VWS V14.01,2013-03-06 18:19:00,
2013-03-06 13:20:00,78.6,63.1,30.06,West,268,3.0,13.0,59,0.00,,FEW,0.00,867.00,VWS V14.01,2013-03-06 18:20:00,
2013-03-06 13:21:00,78.6,62.6,30.06,WNW,284,5.0,13.0,58,0.00,,FEW,0.00,867.00,VWS V14.01,2013-03-06 18:21:00,
2013-03-06 13:23:00,78.8,63.3,30.06,WSW,246,13.0,13.0,59,0.00,,FEW,0.00,867.00,VWS V14.01,2013-03-06 18:23:00,
2013-03-06 13:24:00,78.9,62.9,30.06,WNW,291,5.0,14.0,58,0.00,,FEW,0.00,867.00,VWS V14.01,2013-03-06 18:24:00,
2013-03-06 13:26:00,78.8,62.8,30.06,WSW,239,8.0,14.0,58,0.00,,FEW,0.00,870.00,VWS V14.01,2013-03-06 18:26:00,
2013-03-06 13:28:00,78.8,62.8,30.06,WNW,286,8.0,14.0,58,0.00,,FEW,0.00,870.00,VWS V14.01,2013-03-06 18:28:00,
2013-03-06 13:29:00,78.6,62.6,30.06,WSW,257,6.0,14.0,58,0.00,,FEW,0.00,807.00,VWS V14.01,2013-03-06 18:29:00,
2013-03-06 13:31:00,78.5,62.5,30.05,WSW,255,12.0,14.0,58,0.00,,FEW,0.00,810.00,VWS V14.01,2013-03-06 18:31:00,
2013-03-06 13:33:00,78.5,63.0,30.05,NNW,331,10.0,14.0,59,0.00,,FEW,0.00,835.00,VWS V14.01,2013-03-06 18:33:00,
2013-03-06 13:34:00,78.4,62.9,30.05,NW,309,7.0,14.0,59,0.00,,FEW,0.00,838.00,VWS V14.01,2013-03-06 18:34:00,
2013-03-06 13:36:00,78.2,63.2,30.05,WNW,296,4.0,14.0,60,0.00,,FEW,0.00,810.00,VWS V14.01,2013-03-06 18:36:00,
2013-03-06 13:38:00,78.4,63.4,30.05,SW,232,7.0,14.0,60,0.00,,FEW,0.00,854.00,VWS V14.01,2013-03-06 18:38:00,
2013-03-06 13:39:00,78.5,63.0,30.05,West,273,4.0,14.0,59,0.00,,FEW,0.00,854.00,VWS V14.01,2013-03-06 18:39:00,
2013-03-06 13:41:00,78.3,62.8,30.05,West,264,8.0,14.0,59,0.00,,FEW,0.00,854.00,VWS V14.01,2013-03-06 18:41:00,
2013-03-06 13:43:00,78.2,63.2,30.05,NW,309,12.0,12.0,60,0.00,,FEW,0.00,823.00,VWS V14.01,2013-03-06 18:43:00,
2013-03-06 13:44:00,78.2,63.2,30.05,NW,306,12.0,13.0,60,0.00,,FEW,0.00,775.00,VWS V14.01,2013-03-06 18:44:00,
2013-03-06 13:46:00,78.1,63.1,30.05,WSW,244,12.0,15.0,60,0.00,,FEW,0.00,809.00,VWS V14.01,2013-03-06 18:46:00,
2013-03-06 13:48:00,78.3,63.8,30.05,WNW,298,13.0,15.0,61,0.00,,FEW,0.00,817.00,VWS V14.01,2013-03-06 18:48:00,
2013-03-06 13:49:00,78.4,63.4,30.05,WSW,258,4.0,15.0,60,0.00,,FEW,0.00,803.00,VWS V14.01,2013-03-06 18:49:00,
2013-03-06 13:51:00,78.5,63.5,30.05,NW,305,4.0,15.0,60,0.00,,FEW,0.00,802.00,VWS V14.01,2013-03-06 18:51:00,
2013-03-06 13:53:00,78.4,63.4,30.05,SW,223,11.0,11.0,60,0.00,,FEW,0.00,812.00,VWS V14.01,2013-03-06 18:53:00,
2013-03-06 13:55:00,78.4,63.8,30.05,West,269,7.0,11.0,61,0.00,,FEW,0.00,824.00,VWS V14.01,2013-03-06 18:55:00,
2013-03-06 13:56:00,78.3,63.8,30.05,West,260,12.0,15.0,61,0.00,,FEW,0.00,817.00,VWS V14.01,2013-03-06 18:56:00,
2013-03-06 13:58:00,78.1,63.6,30.05,WSW,249,7.0,15.0,61,0.00,,FEW,0.00,814.00,VWS V14.01,2013-03-06 18:58:00,
2013-03-06 14:00:00,78.2,63.7,30.05,NW,323,9.0,15.0,61,0.00,,FEW,0.00,824.00,VWS V14.01,2013-03-06 19:00:00,
2013-03-06 14:01:00,78.3,63.8,30.04,West,281,3.0,15.0,61,0.00,,FEW,0.00,809.00,VWS V14.01,2013-03-06 19:01:00,
2013-03-06 14:03:00,78.4,63.8,30.04,WSW,257,14.0,14.0,61,0.00,,FEW,0.00,814.00,VWS V14.01,2013-03-06 19:03:00,
2013-03-06 14:05:00,78.6,64.0,30.04,WNW,284,4.0,14.0,61,0.00,,FEW,0.00,807.00,VWS V14.01,2013-03-06 19:05:00,
2013-03-06 14:06:00,78.7,64.1,30.04,West,275,9.0,17.0,61,0.00,,FEW,0.00,809.00,VWS V14.01,2013-03-06 19:06:00,
2013-03-06 14:07:00,78.6,64.0,30.04,West,280,4.0,17.0,61,0.00,,FEW,0.00,809.00,VWS V14.01,2013-03-06 19:07:00,
2013-03-06 14:08:00,78.6,64.5,30.04,WNW,294,9.0,17.0,62,0.00,,FEW,0.00,809.00,VWS V14.01,2013-03-06 19:08:00,
2013-03-06 14:10:00,78.5,64.4,30.04,NW,304,8.0,17.0,62,0.00,,FEW,0.00,798.00,VWS V14.01,2013-03-06 19:10:00,
2013-03-06 14:11:00,78.4,64.3,30.04,NW,307,11.0,17.0,62,0.00,,FEW,0.00,789.00,VWS V14.01,2013-03-06 19:11:00,
2013-03-06 14:12:00,78.3,64.2,30.04,West,280,9.0,10.0,62,0.00,,FEW,0.00,780.00,VWS V14.01,2013-03-06 19:12:00,
2013-03-06 14:13:00,78.1,64.0,30.04,West,263,5.0,13.0,62,0.00,,FEW,0.00,777.00,VWS V14.01,2013-03-06 19:13:00,
2013-03-06 14:15:00,78.0,64.4,30.04,West,279,3.0,13.0,63,0.00,,FEW,0.00,766.00,VWS V14.01,2013-03-06 19:15:00,
2013-03-06 14:17:00,78.1,64.5,30.03,NW,306,10.0,13.0,63,0.00,,FEW,0.00,779.00,VWS V14.01,2013-03-06 19:17:00,
2013-03-06 14:18:00,78.2,64.1,30.03,WNW,288,6.0,13.0,62,0.00,,FEW,0.00,788.00,VWS V14.01,2013-03-06 19:18:00,
2013-03-06 14:20:00,78.4,64.3,30.03,NW,309,8.0,17.0,62,0.00,,FEW,0.00,786.00,VWS V14.01,2013-03-06 19:20:00,
2013-03-06 14:22:00,78.3,63.8,30.03,WNW,297,15.0,15.0,61,0.00,,FEW,0.00,779.00,VWS V14.01,2013-03-06 19:22:00,
2013-03-06 14:23:00,78.1,64.0,30.03,WNW,288,9.0,15.0,62,0.00,,FEW,0.00,772.00,VWS V14.01,2013-03-06 19:23:00,
2013-03-06 14:25:00,77.9,63.8,30.03,NW,309,9.0,15.0,62,0.00,,FEW,0.00,765.00,VWS V14.01,2013-03-06 19:25:00,
2013-03-06 14:27:00,77.7,64.1,30.03,WNW,294,16.0,18.0,63,0.00,,FEW,0.00,766.00,VWS V14.01,2013-03-06 19:27:00,
2013-03-06 14:28:00,77.5,63.9,30.03,West,265,7.0,18.0,63,0.00,,FEW,0.00,775.00,VWS V14.01,2013-03-06 19:28:00,
2013-03-06 14:30:00,77.4,64.3,30.03,NW,306,8.0,18.0,64,0.00,,FEW,0.00,768.00,VWS V14.01,2013-03-06 19:30:00,
2013-03-06 14:32:00,77.4,64.7,30.03,NW,319,12.0,12.0,65,0.00,,FEW,0.00,768.00,VWS V14.01,2013-03-06 19:32:00,
2013-03-06 14:34:00,77.3,65.9,30.03,NW,325,11.0,12.0,68,0.00,,FEW,0.00,726.00,VWS V14.01,2013-03-06 19:34:00,
2013-03-06 14:35:00,77.1,66.2,30.03,WNW,296,7.0,16.0,69,0.00,,FEW,0.00,729.00,VWS V14.01,2013-03-06 19:35:00,
2013-03-06 14:37:00,76.8,66.3,30.03,North,5,7.0,16.0,70,0.00,,FEW,0.00,735.00,VWS V14.01,2013-03-06 19:37:00,
2013-03-06 14:38:00,76.7,66.6,30.03,WNW,296,11.0,16.0,71,0.00,,FEW,0.00,735.00,VWS V14.01,2013-03-06 19:38:00,
2013-03-06 14:39:00,76.7,67.0,30.03,NW,321,6.0,16.0,72,0.00,,FEW,0.00,707.00,VWS V14.01,2013-03-06 19:39:00,
2013-03-06 14:40:00,76.4,66.7,30.03,NW,317,9.0,16.0,72,0.00,,FEW,0.00,719.00,VWS V14.01,2013-03-06 19:40:00,
2013-03-06 14:42:00,76.0,66.3,30.03,NNW,345,7.0,12.0,72,0.00,,FEW,0.00,729.00,VWS V14.01,2013-03-06 19:42:00,
2013-03-06 14:43:00,76.0,66.3,30.03,WNW,291,8.0,13.0,72,0.00,,FEW,0.00,729.00,VWS V14.01,2013-03-06 19:43:00,
2013-03-06 14:44:00,75.7,66.0,30.03,NNW,329,5.0,13.0,72,0.00,,FEW,0.00,726.00,VWS V14.01,2013-03-06 19:44:00,
2013-03-06 14:45:00,75.5,66.6,30.03,NNE,30,5.0,14.0,74,0.00,,FEW,0.00,714.00,VWS V14.01,2013-03-06 19:45:00,
2013-03-06 14:48:00,75.0,66.2,30.03,NW,321,8.0,16.0,74,0.00,,FEW,0.00,700.00,VWS V14.01,2013-03-06 19:48:00,
2013-03-06 14:49:00,74.8,66.0,30.03,North,5,8.0,16.0,74,0.00,,FEW,0.00,691.00,VWS V14.01,2013-03-06 19:49:00,
2013-03-06 14:51:00,74.4,66.0,30.03,NNW,338,9.0,16.0,75,0.00,,FEW,0.00,684.00,VWS V14.01,2013-03-06 19:51:00,
2013-03-06 14:53:00,74.0,66.0,30.03,NW,320,8.0,11.0,76,0.00,,FEW,0.00,687.00,VWS V14.01,2013-03-06 19:53:00,
2013-03-06 14:54:00,73.8,65.8,30.03,West,275,7.0,11.0,76,0.00,,FEW,0.00,691.00,VWS V14.01,2013-03-06 19:54:00,
2013-03-06 14:56:00,73.7,65.7,30.03,NNW,342,7.0,12.0,76,0.00,,FEW,0.00,693.00,VWS V14.01,2013-03-06 19:56:00,
2013-03-06 14:58:00,73.4,65.4,30.03,NNW,330,8.0,15.0,76,0.00,,FEW,0.00,670.00,VWS V14.01,2013-03-06 19:58:00,
2013-03-06 14:59:00,73.3,65.3,30.03,NNW,331,9.0,15.0,76,0.00,,FEW,0.00,679.00,VWS V14.01,2013-03-06 19:59:00,
2013-03-06 15:01:00,73.2,65.2,30.03,NNW,344,9.0,15.0,76,0.00,,FEW,0.00,675.00,VWS V14.01,2013-03-06 20:01:00,
2013-03-06 15:03:00,73.1,65.1,30.03,NNW,336,9.0,11.0,76,0.00,,FEW,0.00,668.00,VWS V14.01,2013-03-06 20:03:00,
2013-03-06 15:04:00,73.0,65.0,30.03,NNW,346,8.0,11.0,76,0.00,,FEW,0.00,664.00,VWS V14.01,2013-03-06 20:04:00,
2013-03-06 15:06:00,72.9,64.9,30.03,NW,317,11.0,12.0,76,0.00,,FEW,0.00,656.00,VWS V14.01,2013-03-06 20:06:00,
2013-03-06 15:08:00,72.6,64.6,30.03,WNW,294,4.0,13.0,76,0.00,,FEW,0.00,652.00,VWS V14.01,2013-03-06 20:08:00,
2013-03-06 15:09:00,72.5,64.5,30.03,NNW,327,5.0,13.0,76,0.00,,FEW,0.00,649.00,VWS V14.01,2013-03-06 20:09:00,
2013-03-06 15:11:00,72.7,65.1,30.03,NNE,15,4.0,13.0,77,0.00,,FEW,0.00,638.00,VWS V14.01,2013-03-06 20:11:00,
2013-03-06 15:13:00,73.0,65.4,30.03,NW,315,8.0,11.0,77,0.00,,FEW,0.00,601.00,VWS V14.01,2013-03-06 20:13:00,
2013-03-06 15:14:00,73.0,65.0,30.03,NNW,346,4.0,11.0,76,0.00,,FEW,0.00,601.00,VWS V14.01,2013-03-06 20:14:00,
2013-03-06 15:17:00,72.8,64.8,30.03,NW,313,9.0,14.0,76,0.00,,FEW,0.00,622.00,VWS V14.01,2013-03-06 20:17:00,
2013-03-06 15:18:00,72.6,64.6,30.03,WNW,296,11.0,14.0,76,0.00,,FEW,0.00,621.00,VWS V14.01,2013-03-06 20:18:00,
2013-03-06 15:19:00,72.6,64.6,30.03,NW,310,8.0,14.0,76,0.00,,FEW,0.00,621.00,VWS V14.01,2013-03-06 20:19:00,
2013-03-06 15:22:00,72.8,65.2,30.03,WNW,300,5.0,5.0,77,0.00,,FEW,0.00,613.00,VWS V14.01,2013-03-06 20:22:00,
2013-03-06 15:24:00,73.0,65.0,30.03,NNW,335,7.0,12.0,76,0.00,,FEW,0.00,605.00,VWS V14.01,2013-03-06 20:24:00,
2013-03-06 15:25:00,73.0,65.0,30.03,NNW,333,9.0,12.0,76,0.00,,FEW,0.00,578.00,VWS V14.01,2013-03-06 20:25:00,
2013-03-06 15:27:00,73.0,65.0,30.03,NNW,338,13.0,13.0,76,0.00,,FEW,0.00,563.00,VWS V14.01,2013-03-06 20:27:00,
2013-03-06 15:29:00,73.0,65.0,30.03,North,360,11.0,13.0,76,0.00,,FEW,0.00,596.00,VWS V14.01,2013-03-06 20:29:00,
2013-03-06 15:30:00,73.0,65.0,30.03,NNW,331,9.0,13.0,76,0.00,,FEW,0.00,592.00,VWS V14.01,2013-03-06 20:30:00,
2013-03-06 15:32:00,73.0,65.0,30.03,NNW,342,15.0,15.0,76,0.00,,FEW,0.00,580.00,VWS V14.01,2013-03-06 20:32:00,
2013-03-06 15:34:00,72.9,64.9,30.03,North,360,8.0,15.0,76,0.00,,FEW,0.00,570.00,VWS V14.01,2013-03-06 20:34:00,
2013-03-06 15:35:00,72.8,64.8,30.03,NNE,21,6.0,15.0,76,0.00,,FEW,0.00,547.00,VWS V14.01,2013-03-06 20:35:00,
2013-03-06 15:37:00,72.6,64.6,30.03,WNW,290,11.0,15.0,76,0.00,,FEW,0.00,473.00,VWS V14.01,2013-03-06 20:37:00,
2013-03-06 15:39:00,72.4,64.0,30.03,NNW,334,9.0,15.0,75,0.00,,FEW,0.00,473.00,VWS V14.01,2013-03-06 20:39:00,
2013-03-06 15:40:00,72.4,64.4,30.03,NW,322,7.0,15.0,76,0.00,,FEW,0.00,589.00,VWS V14.01,2013-03-06 20:40:00,
2013-03-06 15:42:00,72.3,63.9,30.03,North,350,4.0,4.0,75,0.00,,FEW,0.00,267.00,VWS V14.01,2013-03-06 20:42:00,
2013-03-06 15:44:00,72.1,63.4,30.03,NW,311,9.0,12.0,74,0.00,,FEW,0.00,294.00,VWS V14.01,2013-03-06 20:44:00,
2013-03-06 15:45:00,71.9,63.2,30.03,NNE,15,12.0,12.0,74,0.00,,FEW,0.00,294.00,VWS V14.01,2013-03-06 20:45:00,
2013-03-06 15:47:00,71.7,62.6,30.03,NNW,342,7.0,12.0,73,0.00,,FEW,0.00,524.00,VWS V14.01,2013-03-06 20:47:00,
2013-03-06 15:49:00,71.6,62.5,30.03,West,272,9.0,12.0,73,0.00,,FEW,0.00,503.00,VWS V14.01,2013-03-06 20:49:00,
2013-03-06 15:50:00,71.7,63.0,30.03,West,278,8.0,13.0,74,0.00,,FEW,0.00,494.00,VWS V14.01,2013-03-06 20:50:00,
2013-03-06 15:53:00,71.7,63.0,30.03,WNW,298,4.0,10.0,74,0.00,,FEW,0.00,508.00,VWS V14.01,2013-03-06 20:53:00,
2013-03-06 15:54:00,71.6,62.9,30.03,NW,304,8.0,10.0,74,0.00,,FEW,0.00,508.00,VWS V14.01,2013-03-06 20:54:00,
2013-03-06 15:55:00,71.6,62.5,30.03,NW,307,7.0,13.0,73,0.00,,FEW,0.00,441.00,VWS V14.01,2013-03-06 20:55:00,
2013-03-06 15:58:00,71.5,62.4,30.03,North,350,7.0,13.0,73,0.00,,FEW,0.00,450.00,VWS V14.01,2013-03-06 20:58:00,
2013-03-06 15:59:00,71.5,62.4,30.03,NNW,344,8.0,13.0,73,0.00,,FEW,0.00,452.00,VWS V14.01,2013-03-06 20:59:00,
2013-03-06 16:00:00,71.6,62.9,30.03,NNW,329,8.0,13.0,74,0.00,,FEW,0.00,448.00,VWS V14.01,2013-03-06 21:00:00,
2013-03-06 16:03:00,71.6,62.9,30.03,WNW,290,7.0,9.0,74,0.00,,FEW,0.00,490.00,VWS V14.01,2013-03-06 21:03:00,
2013-03-06 16:04:00,71.6,62.5,30.03,WNW,294,3.0,10.0,73,0.00,,FEW,0.00,487.00,VWS V14.01,2013-03-06 21:04:00,
2013-03-06 16:05:00,71.6,62.5,30.03,NW,306,9.0,10.0,73,0.00,,FEW,0.00,476.00,VWS V14.01,2013-03-06 21:05:00,
2013-03-06 16:08:00,71.5,62.0,30.03,WNW,302,7.0,11.0,72,0.00,,FEW,0.00,445.00,VWS V14.01,2013-03-06 21:08:00,
2013-03-06 16:09:00,71.5,62.0,30.03,NW,305,3.0,11.0,72,0.00,,FEW,0.00,445.00,VWS V14.01,2013-03-06 21:09:00,
2013-03-06 16:10:00,71.6,62.1,30.03,WNW,286,12.0,12.0,72,0.00,,FEW,0.00,445.00,VWS V14.01,2013-03-06 21:10:00,
2013-03-06 16:13:00,71.7,62.6,30.03,NW,324,5.0,9.0,73,0.00,,FEW,0.00,413.00,VWS V14.01,2013-03-06 21:13:00,
2013-03-06 16:14:00,71.8,62.7,30.03,NW,317,5.0,9.0,73,0.00,,FEW,0.00,385.00,VWS V14.01,2013-03-06 21:14:00,
2013-03-06 16:15:00,71.9,62.8,30.03,WNW,293,7.0,9.0,73,0.00,,FEW,0.00,425.00,VWS V14.01,2013-03-06 21:15:00,
2013-03-06 16:19:00,71.6,61.7,30.03,NNW,337,8.0,13.0,71,0.00,,FEW,0.00,422.00,VWS V14.01,2013-03-06 21:19:00,
2013-03-06 16:20:00,71.5,62.0,30.03,NNW,346,5.0,13.0,72,0.00,,FEW,0.00,413.00,VWS V14.01,2013-03-06 21:20:00,
2013-03-06 16:21:00,71.5,62.0,30.03,NW,314,7.0,13.0,72,0.00,,FEW,0.00,413.00,VWS V14.01,2013-03-06 21:21:00,
2013-03-06 16:24:00,71.4,62.3,30.03,NW,317,8.0,9.0,73,0.00,,FEW,0.00,394.00,VWS V14.01,2013-03-06 21:24:00,
2013-03-06 16:26:00,71.5,62.4,30.03,NW,319,4.0,9.0,73,0.00,,FEW,0.00,381.00,VWS V14.01,2013-03-06 21:26:00,
2013-03-06 16:29:00,71.6,62.1,30.03,WNW,296,6.0,9.0,72,0.00,,FEW,0.00,367.00,VWS V14.01,2013-03-06 21:29:00,
2013-03-06 16:30:00,71.6,61.7,30.03,NNW,329,8.0,10.0,71,0.00,,FEW,0.00,367.00,VWS V14.01,2013-03-06 21:30:00,
2013-03-06 16:31:00,71.6,61.7,30.03,NW,316,5.0,10.0,71,0.00,,FEW,0.00,357.00,VWS V14.01,2013-03-06 21:31:00,
2013-03-06 16:34:00,71.4,61.9,30.03,NW,325,7.0,10.0,72,0.00,,FEW,0.00,323.00,VWS V14.01,2013-03-06 21:34:00,
2013-03-06 16:35:00,71.4,61.9,30.03,West,281,6.0,10.0,72,0.00,,FEW,0.00,323.00,VWS V14.01,2013-03-06 21:35:00,
2013-03-06 16:36:00,71.3,61.8,30.03,NW,308,10.0,10.0,72,0.00,,FEW,0.00,336.00,VWS V14.01,2013-03-06 21:36:00,
2013-03-06 16:39:00,71.2,61.3,30.03,NW,308,3.0,10.0,71,0.00,,FEW,0.00,352.00,VWS V14.01,2013-03-06 21:39:00,
2013-03-06 16:40:00,71.2,61.3,30.03,WNW,302,11.0,11.0,71,0.00,,FEW,0.00,348.00,VWS V14.01,2013-03-06 21:40:00,
2013-03-06 16:41:00,71.2,61.3,30.03,WNW,294,6.0,11.0,71,0.00,,FEW,0.00,343.00,VWS V14.01,2013-03-06 21:41:00,
2013-03-06 16:44:00,71.1,61.2,30.03,WNW,286,7.0,12.0,71,0.00,,FEW,0.00,316.00,VWS V14.01,2013-03-06 21:44:00,
2013-03-06 16:45:00,71.1,61.2,30.03,NNW,343,5.0,12.0,71,0.00,,FEW,0.00,318.00,VWS V14.01,2013-03-06 21:45:00,
2013-03-06 16:46:00,71.1,61.6,30.03,WNW,286,8.0,12.0,72,0.00,,FEW,0.00,318.00,VWS V14.01,2013-03-06 21:46:00,
2013-03-06 16:49:00,71.0,61.5,30.03,North,5,4.0,12.0,72,0.00,,FEW,0.00,292.00,VWS V14.01,2013-03-06 21:49:00,
2013-03-06 16:50:00,70.9,61.4,30.03,NW,304,10.0,12.0,72,0.00,,FEW,0.00,292.00,VWS V14.01,2013-03-06 21:50:00,
2013-03-06 16:51:00,70.9,61.4,30.03,NW,323,6.0,12.0,72,0.00,,FEW,0.00,295.00,VWS V14.01,2013-03-06 21:51:00,
2013-03-06 16:54:00,70.8,61.7,30.03,North,5,6.0,10.0,73,0.00,,FEW,0.00,279.00,VWS V14.01,2013-03-06 21:54:00,
2013-03-06 16:55:00,70.8,61.7,30.03,NNW,344,5.0,10.0,73,0.00,,FEW,0.00,267.00,VWS V14.01,2013-03-06 21:55:00,
2013-03-06 16:56:00,70.8,61.7,30.03,NNW,332,4.0,10.0,73,0.00,,FEW,0.00,253.00,VWS V14.01,2013-03-06 21:56:00,
2013-03-06 16:59:00,70.7,61.6,30.03,NW,315,7.0,11.0,73,0.00,,FEW,0.00,262.00,VWS V14.01,2013-03-06 21:59:00,
2013-03-06 17:00:00,70.6,61.5,30.03,NNW,333,5.0,11.0,73,0.00,,FEW,0.00,262.00,VWS V14.01,2013-03-06 22:00:00,
2013-03-06 17:01:00,70.6,61.5,30.03,NNW,327,4.0,11.0,73,0.00,,FEW,0.00,260.00,VWS V14.01,2013-03-06 22:01:00,
2013-03-06 17:05:00,70.6,61.9,30.03,WNW,299,3.0,8.0,74,0.00,,FEW,0.00,244.00,VWS V14.01,2013-03-06 22:05:00,
2013-03-06 17:06:00,70.5,61.8,30.03,NW,311,5.0,8.0,74,0.00,,FEW,0.00,244.00,VWS V14.01,2013-03-06 22:06:00,
2013-03-06 17:07:00,70.6,61.9,30.03,WNW,300,3.0,8.0,74,0.00,,FEW,0.00,244.00,VWS V14.01,2013-03-06 22:07:00,
2013-03-06 17:10:00,70.6,61.9,30.03,WNW,285,5.0,8.0,74,0.00,,FEW,0.00,220.00,VWS V14.01,2013-03-06 22:10:00,
2013-03-06 17:11:00,70.6,61.9,30.03,WNW,293,4.0,8.0,74,0.00,,FEW,0.00,192.00,VWS V14.01,2013-03-06 22:11:00,
2013-03-06 17:12:00,70.6,61.9,30.03,NW,313,4.0,8.0,74,0.00,,FEW,0.00,200.00,VWS V14.01,2013-03-06 22:12:00,
2013-03-06 17:15:00,70.6,62.3,30.03,WNW,299,10.0,11.0,75,0.00,,FEW,0.00,171.00,VWS V14.01,2013-03-06 22:15:00,
2013-03-06 17:16:00,70.6,62.3,30.03,NW,316,5.0,12.0,75,0.00,,FEW,0.00,171.00,VWS V14.01,2013-03-06 22:16:00,
2013-03-06 17:17:00,70.5,62.2,30.03,WNW,298,5.0,12.0,75,0.00,,FEW,0.00,190.00,VWS V14.01,2013-03-06 22:17:00,
2013-03-06 17:20:00,70.4,62.1,30.03,NW,319,10.0,12.0,75,0.00,,FEW,0.00,190.00,VWS V14.01,2013-03-06 22:20:00,
2013-03-06 17:21:00,70.4,62.1,30.03,WNW,290,6.0,12.0,75,0.00,,FEW,0.00,185.00,VWS V14.01,2013-03-06 22:21:00,
2013-03-06 17:22:00,70.3,61.6,30.03,WNW,298,5.0,5.0,74,0.00,,FEW,0.00,178.00,VWS V14.01,2013-03-06 22:22:00,
2013-03-06 17:25:00,70.1,61.8,30.03,NW,308,7.0,12.0,75,0.00,,FEW,0.00,174.00,VWS V14.01,2013-03-06 22:25:00,
2013-03-06 17:26:00,70.1,61.8,30.03,WNW,296,2.0,12.0,75,0.00,,FEW,0.00,172.00,VWS V14.01,2013-03-06 22:26:00,
2013-03-06 17:27:00,70.0,61.7,30.03,NW,321,4.0,12.0,75,0.00,,FEW,0.00,169.00,VWS V14.01,2013-03-06 22:27:00,
2013-03-06 17:30:00,69.8,61.5,30.03,WNW,294,9.0,12.0,75,0.00,,FEW,0.00,153.00,VWS V14.01,2013-03-06 22:30:00,
2013-03-06 17:31:00,69.8,61.5,30.03,WNW,290,3.0,12.0,75,0.00,,FEW,0.00,153.00,VWS V14.01,2013-03-06 22:31:00,
2013-03-06 17:32:00,69.7,61.4,30.03,WNW,292,3.0,4.0,75,0.00,,FEW,0.00,151.00,VWS V14.01,2013-03-06 22:32:00,
2013-03-06 17:35:00,69.6,61.3,30.03,NNW,329,6.0,12.0,75,0.00,,FEW,0.00,128.00,VWS V14.01,2013-03-06 22:35:00,
2013-03-06 17:36:00,69.6,61.3,30.03,WNW,302,5.0,12.0,75,0.00,,FEW,0.00,128.00,VWS V14.01,2013-03-06 22:36:00,
2013-03-06 17:37:00,69.6,61.3,30.03,NW,322,7.0,12.0,75,0.00,,FEW,0.00,121.00,VWS V14.01,2013-03-06 22:37:00,
2013-03-06 17:41:00,69.6,61.7,30.03,WNW,302,2.0,12.0,76,0.00,,FEW,0.00,118.00,VWS V14.01,2013-03-06 22:41:00,
2013-03-06 17:42:00,69.6,61.7,30.03,West,277,7.0,7.0,76,0.00,,FEW,0.00,109.00,VWS V14.01,2013-03-06 22:42:00,
2013-03-06 17:46:00,69.4,61.1,30.03,NW,320,4.0,10.0,75,0.00,,FEW,0.00,93.00,VWS V14.01,2013-03-06 22:46:00,
2013-03-06 17:47:00,69.4,61.1,30.03,NW,306,6.0,10.0,75,0.00,,FEW,0.00,88.00,VWS V14.01,2013-03-06 22:47:00,
2013-03-06 17:51:00,69.0,60.8,30.03,North,360,5.0,12.0,75,0.00,,FEW,0.00,79.00,VWS V14.01,2013-03-06 22:51:00,
2013-03-06 17:52:00,68.8,60.2,30.03,NW,310,11.0,12.0,74,0.00,,FEW,0.00,77.00,VWS V14.01,2013-03-06 22:52:00,
2013-03-06 17:56:00,68.4,59.8,30.03,NNW,333,5.0,13.0,74,0.00,,FEW,0.00,62.00,VWS V14.01,2013-03-06 22:56:00,
2013-03-06 17:57:00,68.3,60.1,30.03,NNW,329,11.0,13.0,75,0.00,,FEW,0.00,58.00,VWS V14.01,2013-03-06 22:57:00,
2013-03-06 18:01:00,68.0,60.2,30.03,WNW,288,7.0,13.0,76,0.00,,FEW,0.00,54.00,VWS V14.01,2013-03-06 23:01:00,
2013-03-06 18:02:00,67.9,59.7,30.04,WNW,300,6.0,8.0,75,0.00,,FEW,0.00,49.00,VWS V14.01,2013-03-06 23:02:00,
2013-03-06 18:06:00,67.6,59.4,30.04,NW,319,5.0,12.0,75,0.00,,FEW,0.00,37.00,VWS V14.01,2013-03-06 23:06:00,
2013-03-06 18:07:00,67.5,59.7,30.04,NNW,337,8.0,12.0,76,0.00,,FEW,0.00,32.00,VWS V14.01,2013-03-06 23:07:00,
2013-03-06 18:08:00,67.5,59.7,30.04,NNW,333,3.0,12.0,76,0.00,,FEW,0.00,30.00,VWS V14.01,2013-03-06 23:08:00,
2013-03-06 18:11:00,67.3,59.5,30.04,NW,317,7.0,14.0,76,0.00,,FEW,0.00,26.00,VWS V14.01,2013-03-06 23:11:00,
2013-03-06 18:12:00,67.2,59.4,30.04,West,269,4.0,4.0,76,0.00,,FEW,0.00,25.00,VWS V14.01,2013-03-06 23:12:00,
2013-03-06 18:13:00,67.2,59.4,30.04,West,277,11.0,11.0,76,0.00,,FEW,0.00,23.00,VWS V14.01,2013-03-06 23:13:00,
2013-03-06 18:16:00,67.0,59.6,30.05,NW,305,4.0,13.0,77,0.00,,FEW,0.00,19.00,VWS V14.01,2013-03-06 23:16:00,
2013-03-06 18:17:00,67.0,59.6,30.05,WNW,291,8.0,13.0,77,0.00,,FEW,0.00,18.00,VWS V14.01,2013-03-06 23:17:00,
2013-03-06 18:18:00,67.0,59.6,30.05,WNW,296,5.0,13.0,77,0.00,,FEW,0.00,18.00,VWS V14.01,2013-03-06 23:18:00,
2013-03-06 18:21:00,66.9,59.5,30.05,West,269,6.0,13.0,77,0.00,,FEW,0.00,14.00,VWS V14.01,2013-03-06 23:21:00,
2013-03-06 18:23:00,66.8,59.4,30.05,NNW,335,7.0,9.0,77,0.00,,FEW,0.00,12.00,VWS V14.01,2013-03-06 23:23:00,
2013-03-06 18:26:00,66.7,59.3,30.05,NNW,340,7.0,11.0,77,0.00,,FEW,0.00,7.00,VWS V14.01,2013-03-06 23:26:00,
2013-03-06 18:27:00,66.7,59.3,30.05,NNW,334,7.0,15.0,77,0.00,,FEW,0.00,7.00,VWS V14.01,2013-03-06 23:27:00,
2013-03-06 18:28:00,66.6,59.2,30.05,NW,307,6.0,15.0,77,0.00,,FEW,0.00,5.00,VWS V14.01,2013-03-06 23:28:00,
2013-03-06 18:31:00,66.4,59.0,30.05,NW,321,8.0,15.0,77,0.00,,FEW,0.00,0.00,VWS V14.01,2013-03-06 23:31:00,
2013-03-06 18:32:00,66.4,59.0,30.05,WNW,297,8.0,8.0,77,0.00,,FEW,0.00,0.00,VWS V14.01,2013-03-06 23:32:00,
2013-03-06 18:33:00,66.4,59.0,30.05,WNW,296,7.0,12.0,77,0.00,,FEW,0.00,0.00,VWS V14.01,2013-03-06 23:33:00,
2013-03-06 18:36:00,66.4,59.3,30.05,NNW,332,8.0,12.0,78,0.00,,FEW,0.00,0.00,VWS V14.01,2013-03-06 23:36:00,
2013-03-06 18:37:00,66.3,58.9,30.05,NW,315,11.0,13.0,77,0.00,,FEW,0.00,0.00,VWS V14.01,2013-03-06 23:37:00,
2013-03-06 18:38:00,66.3,58.9,30.05,NW,311,8.0,14.0,77,0.00,,FEW,0.00,0.00,VWS V14.01,2013-03-06 23:38:00,
2013-03-06 18:41:00,66.1,58.7,30.05,North,350,5.0,14.0,77,0.00,,FEW,0.00,0.00,VWS V14.01,2013-03-06 23:41:00,
2013-03-06 18:42:00,66.0,59.0,30.05,North,360,4.0,9.0,78,0.00,,FEW,0.00,0.00,VWS V14.01,2013-03-06 23:42:00,
2013-03-06 18:43:00,66.0,59.0,30.05,NNW,340,5.0,9.0,78,0.00,,FEW,0.00,0.00,VWS V14.01,2013-03-06 23:43:00,
2013-03-06 18:46:00,66.0,59.0,30.06,NNW,343,8.0,13.0,78,0.00,,FEW,0.00,0.00,VWS V14.01,2013-03-06 23:46:00,
2013-03-06 18:47:00,65.9,58.9,30.06,WNW,288,8.0,13.0,78,0.00,,FEW,0.00,0.00,VWS V14.01,2013-03-06 23:47:00,
2013-03-06 18:48:00,65.8,58.8,30.06,WNW,295,8.0,13.0,78,0.00,,FEW,0.00,0.00,VWS V14.01,2013-03-06 23:48:00,
2013-03-06 18:49:00,65.8,58.8,30.06,North,351,7.0,13.0,78,0.00,,FEW,0.00,0.00,VWS V14.01,2013-03-06 23:49:00,
2013-03-06 18:51:00,65.7,58.7,30.06,West,269,6.0,13.0,78,0.00,,FEW,0.00,0.00,VWS V14.01,2013-03-06 23:51:00,
2013-03-06 18:52:00,65.6,58.2,30.06,WNW,285,7.0,9.0,77,0.00,,FEW,0.00,0.00,VWS V14.01,2013-03-06 23:52:00,
2013-03-06 18:53:00,65.6,58.2,30.06,NW,319,9.0,13.0,77,0.00,,FEW,0.00,0.00,VWS V14.01,2013-03-06 23:53:00,
2013-03-06 18:54:00,65.6,58.2,30.06,NW,309,9.0,13.0,77,0.00,,FEW,0.00,0.00,VWS V14.01,2013-03-06 23:54:00,
2013-03-06 18:56:00,65.5,58.5,30.06,West,279,7.0,13.0,78,0.00,,FEW,0.00,0.00,VWS V14.01,2013-03-06 23:56:00,
2013-03-06 18:58:00,65.5,58.5,30.06,North,355,9.0,13.0,78,0.00,,FEW,0.00,0.00,VWS V14.01,2013-03-06 23:58:00,
2013-03-06 18:59:00,65.4,58.4,30.06,NW,308,6.0,13.0,78,0.00,,FEW,0.00,0.00,VWS V14.01,2013-03-06 23:59:00,
2013-03-06 19:01:00,65.4,58.4,30.06,WNW,292,11.0,13.0,78,0.00,,FEW,0.00,0.00,VWS V14.01,2013-03-07 00:01:00,
2013-03-06 19:03:00,65.4,58.4,30.06,NNW,340,15.0,15.0,78,0.00,,FEW,0.00,0.00,VWS V14.01,2013-03-07 00:03:00,
2013-03-06 19:04:00,65.3,58.3,30.06,NNW,327,10.0,16.0,78,0.00,,FEW,0.00,0.00,VWS V14.01,2013-03-07 00:04:00,
2013-03-06 19:07:00,65.2,58.2,30.06,North,355,7.0,16.0,78,0.00,,FEW,0.00,0.00,VWS V14.01,2013-03-07 00:07:00,
2013-03-06 19:08:00,65.2,58.2,30.06,West,273,8.0,16.0,78,0.00,,FEW,0.00,0.00,VWS V14.01,2013-03-07 00:08:00,
2013-03-06 19:09:00,65.2,58.2,30.06,NW,306,13.0,16.0,78,0.00,,FEW,0.00,0.00,VWS V14.01,2013-03-07 00:09:00,
2013-03-06 19:12:00,65.0,58.0,30.06,North,355,5.0,13.0,78,0.00,,FEW,0.00,0.00,VWS V14.01,2013-03-07 00:12:00,
2013-03-06 19:13:00,65.0,58.0,30.06,NW,306,11.0,14.0,78,0.00,,FEW,0.00,0.00,VWS V14.01,2013-03-07 00:13:00,
2013-03-06 19:14:00,65.0,58.0,30.06,WNW,290,12.0,14.0,78,0.00,,FEW,0.00,0.00,VWS V14.01,2013-03-07 00:14:00,
2013-03-06 19:17:00,64.9,57.9,30.07,WNW,300,7.0,16.0,78,0.00,,FEW,0.00,0.00,VWS V14.01,2013-03-07 00:17:00,
2013-03-06 19:18:00,64.9,57.9,30.07,North,355,5.0,17.0,78,0.00,,FEW,0.00,0.00,VWS V14.01,2013-03-07 00:18:00,
2013-03-06 19:19:00,64.9,57.9,30.07,NNW,339,6.0,17.0,78,0.00,,FEW,0.00,0.00,VWS V14.01,2013-03-07 00:19:00,
2013-03-06 19:22:00,64.9,58.2,30.07,NNW,346,6.0,9.0,79,0.00,,FEW,0.00,0.00,VWS V14.01,2013-03-07 00:22:00,
2013-03-06 19:23:00,64.9,58.2,30.07,WNW,298,7.0,17.0,79,0.00,,FEW,0.00,0.00,VWS V14.01,2013-03-07 00:23:00,
2013-03-06 19:24:00,64.8,57.8,30.07,WNW,296,11.0,17.0,78,0.00,,FEW,0.00,0.00,VWS V14.01,2013-03-07 00:24:00,
2013-03-06 19:27:00,64.7,57.7,30.07,NNW,337,9.0,17.0,78,0.00,,FEW,0.00,0.00,VWS V14.01,2013-03-07 00:27:00,
2013-03-06 19:29:00,64.7,57.7,30.07,NW,319,10.0,17.0,78,0.00,,FEW,0.00,0.00,VWS V14.01,2013-03-07 00:29:00,
2013-03-06 19:32:00,64.5,57.5,30.07,NNW,329,8.0,16.0,78,0.00,,FEW,0.00,0.00,VWS V14.01,2013-03-07 00:32:00,
2013-03-06 19:34:00,64.5,57.5,30.07,NW,308,8.0,16.0,78,0.00,,FEW,0.00,0.00,VWS V14.01,2013-03-07 00:34:00,
2013-03-06 19:35:00,64.5,57.5,30.07,NNE,19,6.0,16.0,78,0.00,,FEW,0.00,0.00,VWS V14.01,2013-03-07 00:35:00,
2013-03-06 19:37:00,64.4,57.4,30.07,North,360,12.0,19.0,78,0.00,,FEW,0.00,0.00,VWS V14.01,2013-03-07 00:37:00,
2013-03-06 19:39:00,64.4,57.4,30.07,NNW,331,10.0,19.0,78,0.00,,FEW,0.00,0.00,VWS V14.01,2013-03-07 00:39:00,
2013-03-06 19:40:00,64.4,57.4,30.07,NNW,331,5.0,19.0,78,0.00,,FEW,0.00,0.00,VWS V14.01,2013-03-07 00:40:00,
2013-03-06 19:43:00,64.2,57.2,30.07,NW,312,8.0,12.0,78,0.00,,FEW,0.00,0.00,VWS V14.01,2013-03-07 00:43:00,
2013-03-06 19:44:00,64.2,57.2,30.07,NNW,332,8.0,14.0,78,0.00,,FEW,0.00,0.00,VWS V14.01,2013-03-07 00:44:00,
2013-03-06 19:45:00,64.2,57.2,30.07,NNW,340,8.0,14.0,78,0.00,,FEW,0.00,0.00,VWS V14.01,2013-03-07 00:45:00,
2013-03-06 19:48:00,64.1,57.1,30.08,West,281,12.0,16.0,78,0.00,,FEW,0.00,0.00,VWS V14.01,2013-03-07 00:48:00,
2013-03-06 19:49:00,64.1,57.1,30.08,NNW,331,13.0,16.0,78,0.00,,FEW,0.00,0.00,VWS V14.01,2013-03-07 00:49:00,
2013-03-06 19:50:00,64.1,57.1,30.08,NW,314,12.0,18.0,78,0.00,,FEW,0.00,0.00,VWS V14.01,2013-03-07 00:50:00,
2013-03-06 19:53:00,64.0,57.4,30.08,NW,319,7.0,13.0,79,0.00,,FEW,0.00,0.00,VWS V14.01,2013-03-07 00:53:00,
2013-03-06 19:54:00,64.0,57.4,30.08,North,355,7.0,13.0,79,0.00,,FEW,0.00,0.00,VWS V14.01,2013-03-07 00:54:00,
2013-03-06 19:55:00,64.0,57.4,30.08,NW,309,7.0,13.0,79,0.00,,FEW,0.00,0.00,VWS V14.01,2013-03-07 00:55:00,
2013-03-06 19:58:00,63.9,56.9,30.08,North,355,13.0,15.0,78,0.00,,FEW,0.00,0.00,VWS V14.01,2013-03-07 00:58:00,
2013-03-06 19:59:00,63.9,56.9,30.08,NNW,347,5.0,15.0,78,0.00,,FEW,0.00,0.00,VWS V14.01,2013-03-07 00:59:00,
2013-03-06 20:00:00,63.9,56.9,30.08,North,5,10.0,15.0,78,0.00,,FEW,0.00,0.00,VWS V14.01,2013-03-07 01:00:00,
2013-03-06 20:03:00,63.9,56.9,30.08,West,272,9.0,14.0,78,0.00,,FEW,0.00,0.00,VWS V14.01,2013-03-07 01:03:00,
2013-03-06 20:04:00,63.9,57.3,30.08,NNW,342,7.0,14.0,79,0.00,,FEW,0.00,0.00,VWS V14.01,2013-03-07 01:04:00,
2013-03-06 20:05:00,63.8,57.2,30.08,NNW,329,8.0,14.0,79,0.00,,FEW,0.00,0.00,VWS V14.01,2013-03-07 01:05:00,
2013-03-06 20:08:00,63.8,56.8,30.08,WNW,300,12.0,19.0,78,0.00,,FEW,0.00,0.00,VWS V14.01,2013-03-07 01:08:00,
2013-03-06 20:09:00,63.7,56.7,30.08,WNW,294,11.0,19.0,78,0.00,,FEW,0.00,0.00,VWS V14.01,2013-03-07 01:09:00,
2013-03-06 20:10:00,63.7,56.7,30.08,NW,308,9.0,19.0,78,0.00,,FEW,0.00,0.00,VWS V14.01,2013-03-07 01:10:00,
2013-03-06 20:11:00,63.7,56.7,30.08,NNW,336,11.0,19.0,78,0.00,,FEW,0.00,0.00,VWS V14.01,2013-03-07 01:11:00,
2013-03-06 20:13:00,63.6,56.6,30.08,NNW,338,14.0,14.0,78,0.00,,FEW,0.00,0.00,VWS V14.01,2013-03-07 01:13:00,
2013-03-06 20:15:00,63.7,56.7,30.08,NNW,339,11.0,15.0,78,0.00,,FEW,0.00,0.00,VWS V14.01,2013-03-07 01:15:00,
2013-03-06 20:16:00,63.6,56.6,30.08,NW,324,6.0,15.0,78,0.00,,FEW,0.00,0.00,VWS V14.01,2013-03-07 01:16:00,
2013-03-06 20:18:00,63.6,56.6,30.08,NW,323,6.0,15.0,78,0.00,,FEW,0.00,0.00,VWS V14.01,2013-03-07 01:18:00,
2013-03-06 20:20:00,63.6,56.6,30.08,NNW,343,10.0,16.0,78,0.00,,FEW,0.00,0.00,VWS V14.01,2013-03-07 01:20:00,
2013-03-06 20:21:00,63.6,56.6,30.08,NNW,332,6.0,16.0,78,0.00,,FEW,0.00,0.00,VWS V14.01,2013-03-07 01:21:00,
2013-03-06 20:23:00,63.5,56.5,30.08,North,350,7.0,15.0,78,0.00,,FEW,0.00,0.00,VWS V14.01,2013-03-07 01:23:00,
2013-03-06 20:25:00,63.5,56.5,30.08,WNW,296,12.0,17.0,78,0.00,,FEW,0.00,0.00,VWS V14.01,2013-03-07 01:25:00,
2013-03-06 20:26:00,63.5,56.5,30.08,North,360,14.0,17.0,78,0.00,,FEW,0.00,0.00,VWS V14.01,2013-03-07 01:26:00,
2013-03-06 20:28:00,63.4,56.1,30.08,NNE,28,7.0,17.0,77,0.00,,FEW,0.00,0.00,VWS V14.01,2013-03-07 01:28:00,
2013-03-06 20:30:00,63.3,56.0,30.08,NW,324,5.0,17.0,77,0.00,,FEW,0.00,0.00,VWS V14.01,2013-03-07 01:30:00,
2013-03-06 20:31:00,63.4,55.7,30.08,NNW,339,11.0,17.0,76,0.00,,FEW,0.00,0.00,VWS V14.01,2013-03-07 01:31:00,
2013-03-06 20:34:00,63.3,55.6,30.08,NNW,334,9.0,19.0,76,0.00,,FEW,0.00,0.00,VWS V14.01,2013-03-07 01:34:00,
2013-03-06 20:35:00,63.4,55.7,30.08,North,350,10.0,19.0,76,0.00,,FEW,0.00,0.00,VWS V14.01,2013-03-07 01:35:00,
2013-03-06 20:36:00,63.4,55.7,30.08,NNE,27,16.0,19.0,76,0.00,,FEW,0.00,0.00,VWS V14.01,2013-03-07 01:36:00,
2013-03-06 20:39:00,63.4,56.1,30.08,WNW,303,12.0,19.0,77,0.00,,FEW,0.00,0.00,VWS V14.01,2013-03-07 01:39:00,
2013-03-06 20:40:00,63.4,55.7,30.08,NW,315,12.0,19.0,76,0.00,,FEW,0.00,0.00,VWS V14.01,2013-03-07 01:40:00,
2013-03-06 20:41:00,63.4,55.7,30.08,NNW,331,12.0,19.0,76,0.00,,FEW,0.00,0.00,VWS V14.01,2013-03-07 01:41:00,
2013-03-06 20:44:00,63.3,55.2,30.08,NW,310,10.0,16.0,75,0.00,,FEW,0.00,0.00,VWS V14.01,2013-03-07 01:44:00,
2013-03-06 20:45:00,63.3,55.2,30.08,North,355,7.0,16.0,75,0.00,,FEW,0.00,0.00,VWS V14.01,2013-03-07 01:45:00,
2013-03-06 20:46:00,63.3,55.2,30.09,North,355,11.0,16.0,75,0.00,,FEW,0.00,0.00,VWS V14.01,2013-03-07 01:46:00,
2013-03-06 20:49:00,63.4,55.3,30.09,NW,323,12.0,17.0,75,0.00,,FEW,0.00,0.00,VWS V14.01,2013-03-07 01:49:00,
2013-03-06 20:50:00,63.4,55.3,30.09,NNW,332,6.0,17.0,75,0.00,,FEW,0.00,0.00,VWS V14.01,2013-03-07 01:50:00,
2013-03-06 20:51:00,63.4,55.3,30.09,NW,321,6.0,17.0,75,0.00,,FEW,0.00,0.00,VWS V14.01,2013-03-07 01:51:00,
2013-03-06 20:54:00,63.4,55.0,30.09,NNW,342,6.0,15.0,74,0.00,,FEW,0.00,0.00,VWS V14.01,2013-03-07 01:54:00,
2013-03-06 20:55:00,63.4,55.0,30.09,NW,325,13.0,15.0,74,0.00,,FEW,0.00,0.00,VWS V14.01,2013-03-07 01:55:00,
2013-03-06 20:56:00,63.4,55.0,30.09,North,349,17.0,17.0,74,0.00,,FEW,0.00,0.00,VWS V14.01,2013-03-07 01:56:00,
2013-03-06 20:59:00,63.3,54.9,30.09,NNW,338,11.0,17.0,74,0.00,,FEW,0.00,0.00,VWS V14.01,2013-03-07 01:59:00,
2013-03-06 21:00:00,63.3,54.9,30.09,NW,315,5.0,17.0,74,0.00,,FEW,0.00,0.00,VWS V14.01,2013-03-07 02:00:00,
2013-03-06 21:01:00,63.3,54.9,30.09,NW,305,7.0,17.0,74,0.00,,FEW,0.00,0.00,VWS V14.01,2013-03-07 02:01:00,
2013-03-06 21:04:00,63.4,55.3,30.09,NNW,336,8.0,18.0,75,0.00,,FEW,0.00,0.00,VWS V14.01,2013-03-07 02:04:00,
2013-03-06 21:05:00,63.4,55.3,30.09,WNW,286,9.0,18.0,75,0.00,,FEW,0.00,0.00,VWS V14.01,2013-03-07 02:05:00,
2013-03-06 21:06:00,63.4,55.3,30.09,NW,318,10.0,18.0,75,0.00,,FEW,0.00,0.00,VWS V14.01,2013-03-07 02:06:00,
2013-03-06 21:09:00,63.3,54.5,30.09,North,355,6.0,18.0,73,0.00,,FEW,0.00,0.00,VWS V14.01,2013-03-07 02:09:00,
2013-03-06 21:11:00,63.3,54.5,30.09,NW,305,13.0,20.0,73,0.00,,FEW,0.00,0.00,VWS V14.01,2013-03-07 02:11:00,
2013-03-06 21:14:00,63.4,54.6,30.09,NNW,346,13.0,17.0,73,0.00,,FEW,0.00,0.00,VWS V14.01,2013-03-07 02:14:00,
2013-03-06 21:16:00,63.4,54.2,30.10,NW,319,5.0,17.0,72,0.00,,FEW,0.00,0.00,VWS V14.01,2013-03-07 02:16:00,
2013-03-06 21:17:00,63.3,54.1,30.10,NW,312,8.0,17.0,72,0.00,,FEW,0.00,0.00,VWS V14.01,2013-03-07 02:17:00,
2013-03-06 21:19:00,63.4,54.2,30.10,NW,318,5.0,17.0,72,0.00,,FEW,0.00,0.00,VWS V14.01,2013-03-07 02:19:00,
2013-03-06 21:21:00,63.4,54.2,30.10,NW,322,5.0,17.0,72,0.00,,FEW,0.00,0.00,VWS V14.01,2013-03-07 02:21:00,
2013-03-06 21:22:00,63.4,54.2,30.10,NW,305,8.0,17.0,72,0.00,,FEW,0.00,0.00,VWS V14.01,2013-03-07 02:22:00,
2013-03-06 21:24:00,63.4,54.6,30.10,NW,319,5.0,11.0,73,0.00,,FEW,0.00,0.00,VWS V14.01,2013-03-07 02:24:00,
2013-03-06 21:26:00,63.5,55.1,30.10,NNW,339,15.0,15.0,74,0.00,,FEW,0.00,0.00,VWS V14.01,2013-03-07 02:26:00,
2013-03-06 21:27:00,63.5,55.1,30.10,NNW,340,14.0,15.0,74,0.00,,FEW,0.00,0.00,VWS V14.01,2013-03-07 02:27:00,
2013-03-06 21:30:00,63.4,54.2,30.10,North,355,5.0,19.0,72,0.00,,FEW,0.00,0.00,VWS V14.01,2013-03-07 02:30:00,
2013-03-06 21:31:00,63.3,54.1,30.10,NNW,331,9.0,19.0,72,0.00,,FEW,0.00,0.00,VWS V14.01,2013-03-07 02:31:00,
2013-03-06 21:32:00,63.3,54.1,30.10,NW,312,11.0,11.0,72,0.00,,FEW,0.00,0.00,VWS V14.01,2013-03-07 02:32:00,
2013-03-06 21:35:00,63.4,54.6,30.10,NW,310,8.0,16.0,73,0.00,,FEW,0.00,0.00,VWS V14.01,2013-03-07 02:35:00,
2013-03-06 21:36:00,63.3,54.1,30.10,WNW,303,16.0,18.0,72,0.00,,FEW,0.00,0.00,VWS V14.01,2013-03-07 02:36:00,
2013-03-06 21:37:00,63.3,53.8,30.10,NNW,343,11.0,18.0,71,0.00,,FEW,0.00,0.00,VWS V14.01,2013-03-07 02:37:00,
2013-03-06 21:40:00,63.3,53.8,30.10,North,350,9.0,18.0,71,0.00,,FEW,0.00,0.00,VWS V14.01,2013-03-07 02:40:00,
2013-03-06 21:41:00,63.3,53.8,30.10,NNW,327,6.0,18.0,71,0.00,,FEW,0.00,0.00,VWS V14.01,2013-03-07 02:41:00,
2013-03-06 21:42:00,63.3,54.1,30.10,NW,319,14.0,14.0,72,0.00,,FEW,0.00,0.00,VWS V14.01,2013-03-07 02:42:00,
2013-03-06 21:45:00,63.3,54.1,30.10,NNW,327,15.0,18.0,72,0.00,,FEW,0.00,0.00,VWS V14.01,2013-03-07 02:45:00,
2013-03-06 21:46:00,63.2,53.7,30.10,NW,321,12.0,18.0,71,0.00,,FEW,0.00,0.00,VWS V14.01,2013-03-07 02:46:00,
2013-03-06 21:47:00,63.3,53.8,30.10,NNW,327,13.0,18.0,71,0.00,,FEW,0.00,0.00,VWS V14.01,2013-03-07 02:47:00,
2013-03-06 21:50:00,63.3,54.1,30.10,NW,321,11.0,18.0,72,0.00,,FEW,0.00,0.00,VWS V14.01,2013-03-07 02:50:00,
2013-03-06 21:52:00,63.3,53.8,30.10,NNW,336,14.0,16.0,71,0.00,,FEW,0.00,0.00,VWS V14.01,2013-03-07 02:52:00,
2013-03-06 21:55:00,63.2,53.3,30.10,NW,318,11.0,20.0,70,0.00,,FEW,0.00,0.00,VWS V14.01,2013-03-07 02:55:00,
2013-03-06 21:57:00,63.2,53.3,30.10,NNW,337,7.0,20.0,70,0.00,,FEW,0.00,0.00,VWS V14.01,2013-03-07 02:57:00,
2013-03-06 21:58:00,63.2,52.9,30.10,NW,313,4.0,20.0,69,0.00,,FEW,0.00,0.00,VWS V14.01,2013-03-07 02:58:00,
2013-03-06 22:00:00,63.2,52.9,30.10,NW,322,11.0,20.0,69,0.00,,FEW,0.00,0.00,VWS V14.01,2013-03-07 03:00:00,
2013-03-06 22:02:00,63.2,52.9,30.10,NNW,348,7.0,12.0,69,0.00,,FEW,0.00,0.00,VWS V14.01,2013-03-07 03:02:00,
2013-03-06 22:03:00,63.2,52.9,30.10,NNW,344,13.0,16.0,69,0.00,,FEW,0.00,0.00,VWS V14.01,2013-03-07 03:03:00,
2013-03-06 22:06:00,63.2,52.9,30.10,NW,315,8.0,17.0,69,0.00,,FEW,0.00,0.00,VWS V14.01,2013-03-07 03:06:00,
2013-03-06 22:07:00,63.2,53.3,30.10,North,351,17.0,17.0,70,0.00,,FEW,0.00,0.00,VWS V14.01,2013-03-07 03:07:00,
2013-03-06 22:08:00,63.2,53.7,30.10,NNW,338,7.0,17.0,71,0.00,,FEW,0.00,0.00,VWS V14.01,2013-03-07 03:08:00,
2013-03-06 22:11:00,63.2,53.3,30.10,NNW,334,17.0,17.0,70,0.00,,FEW,0.00,0.00,VWS V14.01,2013-03-07 03:11:00,
2013-03-06 22:12:00,63.2,52.9,30.10,NW,319,10.0,10.0,69,0.00,,FEW,0.00,0.00,VWS V14.01,2013-03-07 03:12:00,
2013-03-06 22:13:00,63.2,52.5,30.10,NNW,340,13.0,15.0,68,0.00,,FEW,0.00,0.00,VWS V14.01,2013-03-07 03:13:00,
2013-03-06 22:16:00,63.2,52.9,30.10,NNW,331,5.0,15.0,69,0.00,,FEW,0.00,0.00,VWS V14.01,2013-03-07 03:16:00,
2013-03-06 22:17:00,63.2,52.9,30.10,NNW,338,10.0,15.0,69,0.00,,FEW,0.00,0.00,VWS V14.01,2013-03-07 03:17:00,
2013-03-06 22:18:00,63.2,52.9,30.10,NNE,24,11.0,15.0,69,0.00,,FEW,0.00,0.00,VWS V14.01,2013-03-07 03:18:00,
2013-03-06 22:21:00,63.2,52.9,30.10,NW,320,7.0,19.0,69,0.00,,FEW,0.00,0.00,VWS V14.01,2013-03-07 03:21:00,
2013-03-06 22:22:00,63.1,52.4,30.10,WNW,294,11.0,11.0,68,0.00,,FEW,0.00,0.00,VWS V14.01,2013-03-07 03:22:00,
2013-03-06 22:23:00,63.2,52.5,30.10,North,5,10.0,11.0,68,0.00,,FEW,0.00,0.00,VWS V14.01,2013-03-07 03:23:00,
2013-03-06 22:26:00,63.1,52.8,30.10,North,351,10.0,17.0,69,0.00,,FEW,0.00,0.00,VWS V14.01,2013-03-07 03:26:00,
2013-03-06 22:27:00,63.1,52.4,30.10,NW,307,9.0,17.0,68,0.00,,FEW,0.00,0.00,VWS V14.01,2013-03-07 03:27:00,
2013-03-06 22:28:00,63.1,52.0,30.10,NW,325,10.0,17.0,67,0.00,,FEW,0.00,0.00,VWS V14.01,2013-03-07 03:28:00,
2013-03-06 22:29:00,63.1,52.0,30.10,North,350,13.0,17.0,67,0.00,,FEW,0.00,0.00,VWS V14.01,2013-03-07 03:29:00,
2013-03-06 22:31:00,63.2,52.5,30.11,NNW,327,10.0,17.0,68,0.00,,FEW,0.00,0.00,VWS V14.01,2013-03-07 03:31:00,
2013-03-06 22:32:00,63.2,52.5,30.11,NW,324,13.0,13.0,68,0.00,,FEW,0.00,0.00,VWS V14.01,2013-03-07 03:32:00,
2013-03-06 22:33:00,63.2,52.5,30.11,NNW,344,14.0,14.0,68,0.00,,FEW,0.00,0.00,VWS V14.01,2013-03-07 03:33:00,
2013-03-06 22:34:00,63.2,52.5,30.11,NNE,13,12.0,15.0,68,0.00,,FEW,0.00,0.00,VWS V14.01,2013-03-07 03:34:00,
2013-03-06 22:36:00,63.2,52.9,30.11,NW,321,6.0,15.0,69,0.00,,FEW,0.00,0.00,VWS V14.01,2013-03-07 03:36:00,
2013-03-06 22:37:00,63.2,52.9,30.11,North,355,14.0,15.0,69,0.00,,FEW,0.00,0.00,VWS V14.01,2013-03-07 03:37:00,
2013-03-06 22:39:00,63.3,53.0,30.11,NW,311,5.0,15.0,69,0.00,,FEW,0.00,0.00,VWS V14.01,2013-03-07 03:39:00,
2013-03-06 22:41:00,63.2,52.9,30.11,NNW,332,8.0,15.0,69,0.00,,FEW,0.00,0.00,VWS V14.01,2013-03-07 03:41:00,
2013-03-06 22:43:00,63.2,52.9,30.11,NNW,330,11.0,11.0,69,0.00,,FEW,0.00,0.00,VWS V14.01,2013-03-07 03:43:00,
2013-03-06 22:44:00,63.2,52.9,30.11,North,360,12.0,15.0,69,0.00,,FEW,0.00,0.00,VWS V14.01,2013-03-07 03:44:00,
2013-03-06 22:46:00,63.2,52.5,30.11,WNW,294,7.0,15.0,68,0.00,,FEW,0.00,0.00,VWS V14.01,2013-03-07 03:46:00,
2013-03-06 22:48:00,63.1,52.4,30.11,NNW,328,10.0,16.0,68,0.00,,FEW,0.00,0.00,VWS V14.01,2013-03-07 03:48:00,
2013-03-06 22:49:00,63.1,52.8,30.11,NNW,344,8.0,17.0,69,0.00,,FEW,0.00,0.00,VWS V14.01,2013-03-07 03:49:00,
2013-03-06 22:51:00,63.1,52.0,30.11,NW,317,13.0,17.0,67,0.00,,FEW,0.00,0.00,VWS V14.01,2013-03-07 03:51:00,
2013-03-06 22:53:00,63.2,52.5,30.11,NW,320,12.0,13.0,68,0.00,,FEW,0.00,0.00,VWS V14.01,2013-03-07 03:53:00,
2013-03-06 22:54:00,63.2,52.5,30.11,NW,326,13.0,13.0,68,0.00,,FEW,0.00,0.00,VWS V14.01,2013-03-07 03:54:00,
2013-03-06 22:56:00,63.2,52.9,30.11,NNE,17,6.0,13.0,69,0.00,,FEW,0.00,0.00,VWS V14.01,2013-03-07 03:56:00,
2013-03-06 22:58:00,63.2,52.9,30.11,NW,323,9.0,15.0,69,0.00,,FEW,0.00,0.00,VWS V14.01,2013-03-07 03:58:00,
2013-03-06 22:59:00,63.2,52.5,30.11,NNW,335,11.0,15.0,68,0.00,,FEW,0.00,0.00,VWS V14.01,2013-03-07 03:59:00,
2013-03-06 23:01:00,63.2,52.5,30.11,WNW,296,6.0,15.0,68,0.00,,FEW,0.00,0.00,VWS V14.01,2013-03-07 04:01:00,
2013-03-06 23:03:00,63.2,52.1,30.11,West,281,5.0,13.0,67,0.00,,FEW,0.00,0.00,VWS V14.01,2013-03-07 04:03:00,
2013-03-06 23:04:00,63.1,52.0,30.11,NNW,336,6.0,13.0,67,0.00,,FEW,0.00,0.00,VWS V14.01,2013-03-07 04:04:00,
2013-03-06 23:06:00,63.1,52.4,30.11,WNW,300,8.0,14.0,68,0.00,,FEW,0.00,0.00,VWS V14.01,2013-03-07 04:06:00,
2013-03-06 23:08:00,63.1,52.4,30.11,NW,323,4.0,14.0,68,0.00,,FEW,0.00,0.00,VWS V14.01,2013-03-07 04:08:00,
2013-03-06 23:09:00,63.1,52.8,30.11,North,5,8.0,14.0,69,0.00,,FEW,0.00,0.00,VWS V14.01,2013-03-07 04:09:00,
2013-03-06 23:11:00,63.1,52.8,30.11,NW,320,8.0,14.0,69,0.00,,FEW,0.00,0.00,VWS V14.01,2013-03-07 04:11:00,
2013-03-06 23:13:00,63.1,52.4,30.11,NNW,336,7.0,12.0,68,0.00,,FEW,0.00,0.00,VWS V14.01,2013-03-07 04:13:00,
2013-03-06 23:14:00,63.0,52.3,30.11,NW,321,5.0,12.0,68,0.00,,FEW,0.00,0.00,VWS V14.01,2013-03-07 04:14:00,
2013-03-06 23:16:00,63.0,52.3,30.11,WNW,297,8.0,14.0,68,0.00,,FEW,0.00,0.00,VWS V14.01,2013-03-07 04:16:00,
2013-03-06 23:18:00,63.0,52.3,30.11,NW,325,5.0,14.0,68,0.00,,FEW,0.00,0.00,VWS V14.01,2013-03-07 04:18:00,
2013-03-06 23:19:00,63.1,52.4,30.11,NNW,340,7.0,14.0,68,0.00,,FEW,0.00,0.00,VWS V14.01,2013-03-07 04:19:00,
2013-03-06 23:20:00,63.1,52.4,30.11,NNW,331,11.0,14.0,68,0.00,,FEW,0.00,0.00,VWS V14.01,2013-03-07 04:20:00,
2013-03-06 23:21:00,63.1,52.4,30.11,NNW,330,12.0,14.0,68,0.00,,FEW,0.00,0.00,VWS V14.01,2013-03-07 04:21:00,
2013-03-06 23:23:00,63.1,52.4,30.11,North,360,8.0,10.0,68,0.00,,FEW,0.00,0.00,VWS V14.01,2013-03-07 04:23:00,
2013-03-06 23:24:00,63.0,52.3,30.11,North,360,5.0,10.0,68,0.00,,FEW,0.00,0.00,VWS V14.01,2013-03-07 04:24:00,
2013-03-06 23:25:00,63.1,52.4,30.11,North,360,13.0,15.0,68,0.00,,FEW,0.00,0.00,VWS V14.01,2013-03-07 04:25:00,
2013-03-06 23:26:00,63.1,52.8,30.11,WNW,303,7.0,16.0,69,0.00,,FEW,0.00,0.00,VWS V14.01,2013-03-07 04:26:00,
2013-03-06 23:28:00,63.1,52.8,30.11,NNW,345,10.0,16.0,69,0.00,,FEW,0.00,0.00,VWS V14.01,2013-03-07 04:28:00,
2013-03-06 23:29:00,63.1,52.8,30.11,NNW,340,9.0,16.0,69,0.00,,FEW,0.00,0.00,VWS V14.01,2013-03-07 04:29:00,
2013-03-06 23:30:00,63.1,52.8,30.11,NNW,344,7.0,16.0,69,0.00,,FEW,0.00,0.00,VWS V14.01,2013-03-07 04:30:00,
2013-03-06 23:31:00,63.1,52.4,30.11,NNW,340,4.0,16.0,68,0.00,,FEW,0.00,0.00,VWS V14.01,2013-03-07 04:31:00,
2013-03-06 23:33:00,63.1,52.4,30.11,WNW,295,5.0,11.0,68,0.00,,FEW,0.00,0.00,VWS V14.01,2013-03-07 04:33:00,
2013-03-06 23:34:00,63.0,52.7,30.11,NNE,13,3.0,11.0,69,0.00,,FEW,0.00,0.00,VWS V14.01,2013-03-07 04:34:00,
2013-03-06 23:35:00,63.1,52.8,30.11,NW,308,5.0,11.0,69,0.00,,FEW,0.00,0.00,VWS V14.01,2013-03-07 04:35:00,
2013-03-06 23:36:00,63.0,52.7,30.11,NNW,345,9.0,11.0,69,0.00,,FEW,0.00,0.00,VWS V14.01,2013-03-07 04:36:00,
2013-03-06 23:38:00,63.0,52.7,30.11,WNW,284,7.0,16.0,69,0.00,,FEW,0.00,0.00,VWS V14.01,2013-03-07 04:38:00,
2013-03-06 23:39:00,63.0,52.7,30.11,North,355,5.0,16.0,69,0.00,,FEW,0.00,0.00,VWS V14.01,2013-03-07 04:39:00,
2013-03-06 23:40:00,63.0,53.1,30.11,North,5,12.0,16.0,70,0.00,,FEW,0.00,0.00,VWS V14.01,2013-03-07 04:40:00,
2013-03-06 23:42:00,63.0,53.1,30.11,North,351,6.0,7.0,70,0.00,,FEW,0.00,0.00,VWS V14.01,2013-03-07 04:42:00,
2013-03-06 23:43:00,63.0,53.5,30.11,North,350,13.0,13.0,71,0.00,,FEW,0.00,0.00,VWS V14.01,2013-03-07 04:43:00,
2013-03-06 23:44:00,63.0,53.5,30.11,NW,304,7.0,13.0,71,0.00,,FEW,0.00,0.00,VWS V14.01,2013-03-07 04:44:00,
2013-03-06 23:45:00,63.0,53.5,30.11,NNW,329,6.0,16.0,71,0.00,,FEW,0.00,0.00,VWS V14.01,2013-03-07 04:45:00,
2013-03-06 23:47:00,63.0,53.1,30.11,NNE,14,14.0,18.0,70,0.00,,FEW,0.00,0.00,VWS V14.01,2013-03-07 04:47:00,
2013-03-06 23:48:00,62.9,52.6,30.11,NNW,331,8.0,18.0,69,0.00,,FEW,0.00,0.00,VWS V14.01,2013-03-07 04:48:00,
2013-03-06 23:49:00,62.9,52.6,30.11,NNW,327,6.0,18.0,69,0.00,,FEW,0.00,0.00,VWS V14.01,2013-03-07 04:49:00,
2013-03-06 23:50:00,62.9,52.6,30.11,North,360,4.0,18.0,69,0.00,,FEW,0.00,0.00,VWS V14.01,2013-03-07 04:50:00,
2013-03-06 23:52:00,62.9,52.6,30.11,NW,314,5.0,6.0,69,0.00,,FEW,0.00,0.00,VWS V14.01,2013-03-07 04:52:00,
2013-03-06 23:53:00,62.8,52.5,30.11,NW,317,6.0,13.0,69,0.00,,FEW,0.00,0.00,VWS V14.01,2013-03-07 04:53:00,
2013-03-06 23:54:00,62.8,52.5,30.11,North,5,10.0,13.0,69,0.00,,FEW,0.00,0.00,VWS V14.01,2013-03-07 04:54:00,
2013-03-06 23:55:00,62.8,52.5,30.11,NW,319,5.0,13.0,69,0.00,,FEW,0.00,0.00,VWS V14.01,2013-03-07 04:55:00,
2013-03-06 23:57:00,62.8,52.5,30.11,NW,315,11.0,16.0,69,0.00,,FEW,0.00,0.00,VWS V14.01,2013-03-07 04:57:00,
2013-03-06 23:58:00,62.8,52.1,30.11,NW,321,7.0,16.0,68,0.00,,FEW,0.00,0.00,VWS V14.01,2013-03-07 04:58:00,
2013-03-06 23:59:00,62.8,52.1,30.11,NNW,338,5.0,16.0,68,0.00,,FEW,0.00,0.00,VWS V14.01,2013-03-07 04:59:00,